Latitude: N 50° 09' 49" Longitude: W 05° 11' 53" Elevation: 168m ASL

There are 7 visitors online

Adverts

<- Previous Day | Today | Next Day ->

All Data for 10 August 2018

Time
A - D
Temp
A - D
Dew Point
A - D
Humidity
A - D
Pressure
A - D
Wind
A - D
Wind Dir Gust
A - D
Rain Rate
A - D
Rain Total
00:00 11.7 8.6 81 1019.3 0.0 SW 1.6 0.0 0.0
00:01 11.7 8.6 81 1019.2 0.0 SW 1.6 0.0 0.0
00:02 11.7 8.6 81 1019.2 0.0 SW 0.7 0.0 0.0
00:03 11.7 8.6 81 1019.4 0.0 SW 0.7 0.0 0.0
00:04 11.7 8.6 81 1019.3 0.0 SW 0.7 0.0 0.0
00:05 11.7 8.6 81 1019.3 0.0 SW 0.7 0.0 0.0
00:06 11.7 8.6 81 1019.3 0.0 SW 0.7 0.0 0.0
00:07 11.7 8.6 81 1019.4 0.7 SW 0.7 0.0 0.0
00:08 11.6 8.5 81 1019.3 0.0 SW 0.7 0.0 0.0
00:09 11.6 8.5 81 1019.3 0.0 SW 0.7 0.0 0.0
00:10 11.6 8.5 81 1019.3 0.0 SW 0.7 0.0 0.0
00:11 11.6 8.5 81 1019.3 0.0 SW 0.7 0.0 0.0
00:12 11.6 8.5 81 1019.3 0.0 SW 0.7 0.0 0.0
00:13 11.6 8.5 81 1019.2 0.0 SW 0.7 0.0 0.0
00:14 11.6 8.5 81 1019.4 0.0 SW 0.7 0.0 0.0
00:15 11.6 8.5 81 1019.4 0.0 SW 0.7 0.0 0.0
00:16 11.6 8.5 81 1019.4 0.0 SW 0.7 0.0 0.0
00:17 11.6 8.5 81 1019.4 0.0 SW 0.7 0.0 0.0
00:18 11.6 8.5 81 1019.3 0.0 SW 0.7 0.0 0.0
00:20 11.6 8.5 81 1019.3 0.7 S 1.6 0.0 0.0
00:21 11.6 8.5 81 1019.4 0.7 E 1.6 0.0 0.0
00:22 11.6 8.5 81 1019.3 0.0 E 1.6 0.0 0.0
00:23 11.6 8.6 82 1019.4 0.0 NE 1.6 0.0 0.0
00:24 11.6 8.6 82 1019.4 0.0 NE 1.6 0.0 0.0
00:25 11.6 8.6 82 1019.4 0.0 NE 1.6 0.0 0.0
00:26 11.6 8.6 82 1019.3 0.0 NE 1.6 0.0 0.0
00:27 11.6 8.6 82 1019.3 0.0 NE 1.6 0.0 0.0
00:28 11.5 8.5 82 1019.3 0.7 NE 1.6 0.0 0.0
00:29 11.5 8.5 82 1019.4 0.0 NE 0.7 0.0 0.0
00:30 11.5 8.5 82 1019.3 0.0 NE 0.7 0.0 0.0
00:31 11.5 8.5 82 1019.4 0.0 NE 0.7 0.0 0.0
00:32 11.5 8.5 82 1019.3 0.7 NE 0.7 0.0 0.0
00:33 11.5 8.5 82 1019.4 0.0 N 0.7 0.0 0.0
00:34 11.5 8.5 82 1019.4 0.0 W 0.7 0.0 0.0
00:35 11.5 8.5 82 1019.4 0.0 N 0.7 0.0 0.0
00:36 11.5 8.5 82 1019.4 0.0 N 0.7 0.0 0.0
00:37 11.5 8.5 82 1019.4 0.0 NW 0.7 0.0 0.0
00:38 11.5 8.5 82 1019.3 0.7 NW 0.7 0.0 0.0
00:39 11.5 8.5 82 1019.5 2.2 NW 2.2 0.0 0.0
00:40 11.5 8.5 82 1019.4 1.6 NW 2.2 0.0 0.0
00:41 11.5 8.5 82 1019.4 3.1 W 3.1 0.0 0.0
00:42 11.5 8.5 82 1019.3 2.2 N 3.1 0.0 0.0
00:43 11.5 8.5 82 1019.3 2.2 S 3.1 0.0 0.0
00:44 11.5 8.5 82 1019.3 2.2 S 3.1 0.0 0.0
00:45 11.5 8.5 82 1019.3 2.2 SW 3.1 0.0 0.0
00:46 11.5 8.5 82 1019.4 1.6 S 3.1 0.0 0.0
00:47 11.5 8.5 82 1019.3 1.6 W 3.1 0.0 0.0
00:48 11.5 8.5 82 1019.3 1.6 W 3.1 0.0 0.0
00:49 11.5 8.5 82 1019.5 0.7 WSW 3.1 0.0 0.0
00:50 11.5 8.5 82 1019.4 3.1 NW 3.1 0.0 0.0
00:51 11.5 8.5 82 1019.5 3.8 SW 3.8 0.0 0.0
00:52 11.5 8.5 82 1019.5 3.8 S 3.8 0.0 0.0
00:53 11.5 8.7 83 1019.3 3.1 S 3.8 0.0 0.0
00:54 11.5 8.7 83 1019.4 1.6 W 3.8 0.0 0.0
00:55 11.5 8.7 83 1019.3 2.2 W 3.8 0.0 0.0
00:56 11.5 8.7 83 1019.3 0.7 W 3.8 0.0 0.0
00:58 11.4 8.6 83 1019.3 1.6 W 3.8 0.0 0.0
00:59 11.5 8.7 83 1019.3 1.6 SE 3.8 0.0 0.0
01:01 11.4 8.6 83 1019.3 1.6 S 3.8 0.0 0.0
01:02 11.4 8.6 83 1019.3 1.6 S 3.1 0.0 0.0
01:03 11.4 8.6 83 1019.3 1.6 S 3.1 0.0 0.0
01:04 11.4 8.6 83 1019.4 1.6 S 2.2 0.0 0.0
01:06 11.4 8.6 83 1019.2 0.0 S 1.6 0.0 0.0
01:07 11.4 8.6 83 1019.4 0.0 S 1.6 0.0 0.0
01:08 11.4 8.6 83 1019.4 0.7 S 1.6 0.0 0.0
01:09 11.4 8.6 83 1019.2 0.0 S 1.6 0.0 0.0
01:11 11.4 8.6 83 1019.2 0.0 S 1.6 0.0 0.0
01:12 11.4 8.6 83 1019.3 0.0 S 1.6 0.0 0.0
01:14 11.4 8.6 83 1019.3 0.0 S 1.6 0.0 0.0
01:15 11.4 8.6 83 1019.2 0.0 S 1.6 0.0 0.0
01:16 11.3 8.5 83 1019.4 0.0 S 0.7 0.0 0.0
01:17 11.4 8.6 83 1019.3 0.0 S 0.7 0.0 0.0
01:18 11.3 8.5 83 1019.3 0.0 S 0.7 0.0 0.0
01:19 11.3 8.5 83 1019.3 0.0 S 0.7 0.0 0.0
01:20 11.3 8.5 83 1019.3 0.0 S 0.0 0.0 0.0
01:22 11.3 8.5 83 1019.4 0.0 S 0.0 0.0 0.0
01:24 11.3 8.5 83 1019.3 0.0 S 0.0 0.0 0.0
01:25 11.3 8.5 83 1019.3 0.0 S 0.0 0.0 0.0
01:26 11.3 8.5 83 1019.4 0.0 S 0.0 0.0 0.0
01:28 11.3 8.5 83 1019.3 0.0 S 0.0 0.0 0.0
01:29 11.2 8.4 83 1019.3 0.0 S 0.0 0.0 0.0
01:30 11.2 8.4 83 1019.2 0.0 S 0.0 0.0 0.0
01:31 11.2 8.4 83 1019.2 0.0 S 0.0 0.0 0.0
01:32 11.2 8.4 83 1019.3 0.0 S 0.0 0.0 0.0
01:33 11.2 8.4 83 1019.3 0.0 S 0.0 0.0 0.0
01:34 11.2 8.4 83 1019.3 0.0 S 0.0 0.0 0.0
01:35 11.2 8.4 83 1019.2 0.0 S 0.0 0.0 0.0
01:36 11.2 8.4 83 1019.2 0.0 S 0.0 0.0 0.0
01:37 11.2 8.4 83 1019.3 0.0 S 0.0 0.0 0.0
01:38 11.2 8.4 83 1019.1 0.7 S 0.7 0.0 0.0
01:39 11.1 8.3 83 1019.1 1.6 NE 1.6 0.0 0.0
01:40 11.1 8.3 83 1019.3 0.7 SE 1.6 0.0 0.0
01:41 11.1 8.3 83 1019.1 0.7 N 1.6 0.0 0.0
01:42 11.1 8.3 83 1019.3 2.2 NE 2.2 0.0 0.0
01:43 11.1 8.3 83 1019.3 1.6 NE 2.2 0.0 0.0
01:44 11.1 8.3 83 1019.1 2.2 SE 2.2 0.0 0.0
01:45 11.1 8.3 83 1019.2 2.2 SE 2.2 0.0 0.0
01:46 11.1 8.3 83 1019.1 2.2 E 2.2 0.0 0.0
01:47 11.1 8.3 83 1019.1 2.2 SE 2.2 0.0 0.0
01:48 11.1 8.3 83 1019.2 2.2 SE 2.2 0.0 0.0
01:49 11.0 8.2 83 1019.2 2.2 SE 2.2 0.0 0.0
01:50 11.0 8.2 83 1019.2 1.6 SE 2.2 0.0 0.0
01:51 11.1 8.5 84 1019.3 2.2 SE 2.2 0.0 0.0
01:52 11.0 8.4 84 1019.3 1.6 E 2.2 0.0 0.0
01:53 11.0 8.4 84 1019.2 2.2 S 2.2 0.0 0.0
01:54 11.1 8.5 84 1019.2 2.2 E 2.2 0.0 0.0
01:55 11.1 8.5 84 1019.2 1.6 SE 2.2 0.0 0.0
01:56 11.1 8.5 84 1019.4 2.2 SE 2.2 0.0 0.0
01:57 11.1 8.5 84 1019.3 1.6 SE 2.2 0.0 0.0
01:58 11.1 8.5 84 1019.4 1.6 SE 2.2 0.0 0.0
01:59 11.1 8.5 84 1019.4 1.6 E 2.2 0.0 0.0
02:00 11.1 8.5 84 1019.4 0.7 E 2.2 0.0 0.0
02:02 11.1 8.5 84 1019.4 0.7 E 2.2 0.0 0.0
02:03 11.1 8.5 84 1019.5 0.7 E 2.2 0.0 0.0
02:04 11.1 8.5 84 1019.3 0.7 E 2.2 0.0 0.0
02:05 11.1 8.5 84 1019.4 0.7 E 2.2 0.0 0.0
02:06 11.1 8.5 84 1019.3 0.7 E 1.6 0.0 0.0
02:07 11.1 8.5 84 1019.5 0.0 E 1.6 0.0 0.0
02:08 11.1 8.5 84 1019.3 0.7 E 1.6 0.0 0.0
02:09 11.1 8.5 84 1019.3 0.0 E 0.7 0.0 0.0
02:10 11.1 8.5 84 1019.4 0.7 SE 0.7 0.0 0.0
02:11 11.1 8.5 84 1019.3 1.6 E 1.6 0.0 0.0
02:12 11.1 8.5 84 1019.4 2.2 SE 2.2 0.0 0.0
02:13 11.1 8.7 85 1019.4 3.1 SE 3.1 0.0 0.0
02:14 11.1 8.7 85 1019.4 2.2 SE 3.1 0.0 0.0
02:15 11.1 8.7 85 1019.4 2.2 SE 3.1 0.0 0.0
02:16 11.1 8.7 85 1019.3 1.6 SE 3.1 0.0 0.0
02:17 11.1 8.7 85 1019.4 3.1 SE 3.1 0.0 0.0
02:18 11.1 8.7 85 1019.3 2.2 SE 3.1 0.0 0.0
02:19 11.1 8.7 85 1019.3 3.1 SE 3.1 0.0 0.0
02:20 11.1 8.7 85 1019.3 2.2 SSE 3.1 0.0 0.0
02:21 11.1 8.7 85 1019.3 2.2 E 3.1 0.0 0.0
02:22 11.2 8.8 85 1019.3 2.2 SE 3.1 0.0 0.0
02:23 11.2 8.8 85 1019.3 2.2 SE 3.1 0.0 0.0
02:24 11.2 8.8 85 1019.3 2.2 SE 3.1 0.0 0.0
02:25 11.2 8.8 85 1019.3 2.2 SE 3.1 0.0 0.0
02:26 11.2 8.8 85 1019.3 1.6 SE 3.1 0.0 0.0
02:27 11.2 8.8 85 1019.3 2.2 SE 3.1 0.0 0.0
02:28 11.2 8.8 85 1019.4 2.2 SE 3.1 0.0 0.0
02:29 11.2 8.8 85 1019.3 2.2 SE 3.1 0.0 0.0
02:30 11.2 8.8 85 1019.4 2.2 SE 3.1 0.0 0.0
02:31 11.2 8.8 85 1019.3 1.6 SE 2.2 0.0 0.0
02:33 11.2 8.8 85 1019.1 2.2 SE 2.2 0.0 0.0
02:34 11.2 8.9 86 1019.2 2.2 SE 2.2 0.0 0.0
02:35 11.2 8.9 86 1019.2 2.2 SE 3.1 0.0 0.0
02:36 11.3 9.0 86 1019.3 2.2 SE 3.1 0.0 0.0
02:37 11.3 9.0 86 1019.3 2.2 SE 3.1 0.0 0.0
02:38 11.3 9.0 86 1019.1 1.6 SE 3.1 0.0 0.0
02:39 11.3 9.0 86 1019.2 3.1 SE 3.1 0.0 0.0
02:40 11.3 9.0 86 1019.3 2.2 S 3.1 0.0 0.0
02:41 11.3 9.0 86 1019.1 2.2 SE 3.1 0.0 0.0
02:42 11.3 9.0 86 1019.1 2.2 SE 3.1 0.0 0.0
02:43 11.3 9.0 86 1019.2 2.2 SE 3.1 0.0 0.0
02:44 11.4 9.1 86 1019.1 1.6 SE 3.1 0.0 0.0
02:45 11.4 9.1 86 1019.2 1.6 SE 3.1 0.0 0.0
02:46 11.4 9.1 86 1019.2 1.6 SE 3.1 0.0 0.0
02:47 11.4 9.1 86 1019.2 1.6 SE 3.1 0.0 0.0
02:48 11.4 9.1 86 1019.2 1.6 SE 3.1 0.0 0.0
02:49 11.4 9.1 86 1019.3 2.2 SE 3.1 0.0 0.0
02:50 11.4 9.1 86 1019.2 2.2 SE 2.2 0.0 0.0
02:51 11.4 9.1 86 1019.1 1.6 SE 2.2 0.0 0.0
02:52 11.4 9.1 86 1019.2 1.6 SE 2.2 0.0 0.0
02:53 11.5 9.4 87 1019.3 1.6 SE 2.2 0.0 0.0
02:54 11.5 9.4 87 1019.0 2.2 SE 2.2 0.0 0.0
02:55 11.5 9.4 87 1019.0 1.6 SE 2.2 0.0 0.0
02:56 11.5 9.4 87 1018.9 1.6 N 2.2 0.0 0.0
02:57 11.5 9.4 87 1019.1 2.2 NE 2.2 0.0 0.0
02:58 11.5 9.4 87 1018.9 0.0 NE 2.2 0.0 0.0
02:59 11.5 9.4 87 1018.9 0.7 NE 2.2 0.0 0.0
03:00 11.5 9.4 87 1018.9 0.0 E 2.2 0.0 0.0
03:01 11.5 9.4 87 1018.8 0.0 E 2.2 0.0 0.0
03:02 11.5 9.4 87 1018.9 0.0 E 2.2 0.0 0.0
03:03 11.5 9.4 87 1019.0 0.0 E 2.2 0.0 0.0
03:04 11.5 9.4 87 1019.0 0.0 E 2.2 0.0 0.0
03:05 11.5 9.4 87 1019.0 0.0 E 2.2 0.0 0.0
03:06 11.5 9.4 87 1019.2 0.0 E 2.2 0.0 0.0
03:07 11.5 9.4 87 1019.0 0.0 E 0.7 0.0 0.0
03:08 11.5 9.4 87 1019.2 1.6 SE 1.6 0.0 0.0
03:09 11.5 9.4 87 1019.2 1.6 SE 1.6 0.0 0.0
03:10 11.5 9.4 87 1019.0 0.7 E 1.6 0.0 0.0
03:11 11.5 9.4 87 1019.0 0.7 E 1.6 0.0 0.0
03:12 11.6 9.5 87 1019.1 1.6 SE 1.6 0.0 0.0
03:14 11.6 9.5 87 1019.1 1.6 E 1.6 0.0 0.0
03:15 11.6 9.5 87 1019.2 1.6 E 1.6 0.0 0.0
03:17 11.5 9.4 87 1019.1 1.6 SE 1.6 0.0 0.0
03:18 11.6 9.5 87 1019.2 0.7 NE 1.6 0.0 0.0
03:19 11.5 9.4 87 1019.1 2.2 SE 2.2 0.0 0.0
03:20 11.5 9.4 87 1019.1 1.6 S 2.2 0.0 0.0
03:21 11.5 9.4 87 1019.1 1.6 SE 2.2 0.0 0.0
03:22 11.5 9.4 87 1019.2 1.6 SE 2.2 0.0 0.0
03:23 11.5 9.4 87 1019.1 2.2 SE 2.2 0.0 0.0
03:24 11.6 9.5 87 1019.0 2.2 SE 2.2 0.0 0.0
03:25 11.6 9.5 87 1019.1 2.2 SE 2.2 0.0 0.0
03:26 11.5 9.4 87 1018.9 2.2 SE 2.2 0.0 0.0
03:27 11.5 9.4 87 1019.1 1.6 SE 2.2 0.0 0.0
03:28 11.6 9.5 87 1019.0 2.2 SE 2.2 0.0 0.0
03:29 11.6 9.5 87 1019.1 2.2 S 2.2 0.0 0.0
03:30 11.6 9.5 87 1018.9 2.2 SE 2.2 0.0 0.0
03:31 11.6 9.5 87 1019.0 1.6 SE 2.2 0.0 0.0
03:32 11.6 9.5 87 1018.9 1.6 E 2.2 0.0 0.0
03:33 11.6 9.5 87 1018.9 1.6 SE 2.2 0.0 0.0
03:34 11.6 9.5 87 1019.1 2.2 S 2.2 0.0 0.0
03:35 11.6 9.5 87 1019.0 2.2 S 2.2 0.0 0.0
03:36 11.6 9.5 87 1019.0 1.6 SE 2.2 0.0 0.0
03:37 11.6 9.5 87 1018.9 1.6 S 2.2 0.0 0.0
03:38 11.6 9.5 87 1019.0 1.6 SE 2.2 0.0 0.0
03:39 11.6 9.5 87 1019.0 1.6 S 2.2 0.0 0.0
03:40 11.6 9.5 87 1018.9 2.2 SE 2.2 0.0 0.0
03:42 11.6 9.5 87 1018.8 1.6 SE 2.2 0.0 0.0
03:43 11.6 9.5 87 1018.9 1.6 SE 2.2 0.0 0.0
03:44 11.6 9.5 87 1018.8 2.2 S 2.2 0.0 0.0
03:45 11.6 9.5 87 1018.8 2.2 S 2.2 0.0 0.0
03:46 11.6 9.5 87 1018.9 2.2 SE 2.2 0.0 0.0
03:47 11.6 9.5 87 1018.8 1.6 SE 2.2 0.0 0.0
03:48 11.6 9.5 87 1018.8 2.2 SE 2.2 0.0 0.0
03:49 11.6 9.5 87 1018.8 1.6 S 2.2 0.0 0.0
03:50 11.6 9.5 87 1018.8 2.2 S 2.2 0.0 0.0
03:51 11.6 9.5 87 1018.8 1.6 SE 2.2 0.0 0.0
03:52 11.6 9.5 87 1018.8 1.6 SE 2.2 0.0 0.0
03:53 11.6 9.5 87 1018.7 2.2 SW 2.2 0.0 0.0
03:54 11.6 9.5 87 1018.9 1.6 S 2.2 0.0 0.0
03:55 11.6 9.5 87 1018.7 2.2 S 2.2 0.0 0.0
03:56 11.6 9.5 87 1018.9 1.6 S 2.2 0.0 0.0
03:57 11.6 9.5 87 1018.7 1.6 S 2.2 0.0 0.0
03:58 11.6 9.7 88 1018.8 2.2 S 2.2 0.0 0.0
03:59 11.6 9.5 87 1018.8 2.2 S 2.2 0.0 0.0
04:00 11.6 9.5 87 1018.8 2.2 S 2.2 0.0 0.0
04:01 11.6 9.5 87 1018.7 2.2 S 2.2 0.0 0.0
04:02 11.6 9.5 87 1018.9 2.2 S 2.2 0.0 0.0
04:03 11.6 9.5 87 1018.7 2.2 S 2.2 0.0 0.0
04:04 11.6 9.5 87 1018.7 2.2 S 2.2 0.0 0.0
04:06 11.6 9.7 88 1018.7 2.2 SE 2.2 0.0 0.0
04:07 11.6 9.7 88 1018.7 2.2 S 2.2 0.0 0.0
04:08 11.6 9.7 88 1018.6 2.2 S 2.2 0.0 0.0
04:09 11.6 9.7 88 1018.8 2.2 SE 2.2 0.0 0.0
04:10 11.6 9.7 88 1018.5 3.1 SE 3.1 0.0 0.0
04:11 11.6 9.7 88 1018.6 2.2 SE 3.1 0.0 0.0
04:12 11.6 9.7 88 1018.7 2.2 S 3.1 0.0 0.0
04:13 11.7 9.8 88 1018.7 2.2 S 3.1 0.0 0.0
04:14 11.7 9.8 88 1018.7 2.2 S 3.1 0.0 0.0
04:15 11.8 9.9 88 1018.6 3.1 S 3.1 0.0 0.0
04:16 11.7 9.8 88 1018.6 2.2 S 3.1 0.0 0.0
04:17 11.7 9.8 88 1018.6 2.2 SE 3.1 0.0 0.0
04:18 11.7 9.8 88 1018.5 2.2 S 3.1 0.0 0.0
04:19 11.7 9.8 88 1018.5 3.1 SE 3.1 0.0 0.0
04:20 11.8 9.9 88 1018.6 3.1 S 3.1 0.0 0.0
04:21 11.8 9.9 88 1018.6 2.2 SE 3.1 0.0 0.0
04:22 11.8 9.9 88 1018.3 3.1 SE 3.1 0.0 0.0
04:23 11.8 9.9 88 1018.5 3.1 SSW 3.1 0.0 0.0
04:24 11.8 9.9 88 1018.5 3.8 S 3.8 0.0 0.0
04:25 11.9 10.0 88 1018.4 3.8 S 3.8 0.0 0.0
04:26 11.9 10.0 88 1018.4 3.8 S 3.8 0.0 0.0
04:27 11.9 10.0 88 1018.5 3.1 SE 3.8 0.0 0.0
04:28 12.0 10.1 88 1018.5 2.2 S 3.8 0.0 0.0
04:29 12.0 10.2 89 1018.4 2.2 S 3.8 0.0 0.0
04:30 12.0 10.2 89 1018.4 2.2 S 3.8 0.8 0.1
04:31 12.0 10.2 89 1018.5 2.2 S 3.8 0.8 0.1
04:32 12.1 10.3 89 1018.3 2.2 SW 3.8 0.8 0.1
04:33 12.1 10.3 89 1018.4 3.1 S 3.8 0.8 0.1
04:34 12.1 10.3 89 1018.4 3.8 SE 3.8 0.8 0.1
04:35 12.1 10.3 89 1018.4 3.1 S 3.8 0.0 0.1
04:36 12.1 10.3 89 1018.5 4.5 SE 4.5 0.0 0.1
04:37 12.2 10.4 89 1018.3 3.8 S 4.5 0.0 0.1
04:38 12.2 10.4 89 1018.4 2.2 SE 4.5 0.0 0.1
04:39 12.2 10.4 89 1018.5 3.8 SW 4.5 0.0 0.1
04:41 12.3 10.5 89 1018.5 2.2 S 4.5 0.0 0.1
04:42 12.3 10.5 89 1018.4 3.1 SE 4.5 0.0 0.1
04:43 12.3 10.5 89 1018.5 2.2 S 4.5 0.0 0.1
04:44 12.3 10.5 89 1018.5 3.8 S 4.5 0.0 0.1
04:45 12.3 10.5 89 1018.4 3.1 SE 4.5 0.0 0.1
04:46 12.4 10.6 89 1018.4 3.1 S 4.5 0.0 0.1
04:47 12.4 10.6 89 1018.4 4.5 SE 4.5 0.0 0.1
04:48 12.4 10.6 89 1018.3 4.5 S 4.5 0.0 0.1
04:49 12.4 10.6 89 1018.4 3.1 S 4.5 0.0 0.1
04:50 12.4 10.6 89 1018.3 3.1 S 4.5 0.0 0.1
04:51 12.4 10.6 89 1018.3 3.1 S 4.5 0.0 0.1
04:52 12.4 10.6 89 1018.4 3.8 SW 4.5 0.0 0.1
04:53 12.5 10.7 89 1018.4 3.1 SW 4.5 0.0 0.1
04:54 12.5 10.7 89 1018.4 4.5 S 4.5 0.0 0.1
04:55 12.5 10.7 89 1018.4 3.8 SE 4.5 0.0 0.1
04:56 12.5 10.9 90 1018.3 3.1 S 4.5 0.0 0.1
04:57 12.6 11.0 90 1018.4 3.1 S 4.5 0.0 0.1
04:58 12.6 11.0 90 1018.4 3.8 S 4.5 0.0 0.1
04:59 12.6 11.0 90 1018.2 3.1 SW 4.5 0.0 0.1
05:00 12.6 11.0 90 1018.5 3.1 S 4.5 0.0 0.1
05:01 12.6 11.0 90 1018.4 3.1 S 4.5 0.0 0.1
05:02 12.7 11.1 90 1018.2 3.1 SSW 4.5 0.0 0.1
05:03 12.7 11.1 90 1018.4 3.8 S 4.5 0.0 0.1
05:04 12.7 11.1 90 1018.4 3.1 S 4.5 0.0 0.1
05:05 12.7 11.1 90 1018.4 4.5 S 4.5 0.0 0.1
05:06 12.8 11.2 90 1018.5 5.4 S 5.4 0.0 0.1
05:07 12.8 11.2 90 1018.4 3.8 S 6.0 0.0 0.1
05:08 12.8 11.2 90 1018.4 5.4 S 6.0 0.0 0.1
05:10 12.9 11.3 90 1018.4 6.0 S 6.9 0.0 0.1
05:11 12.9 11.3 90 1018.2 5.4 SSW 6.9 0.0 0.1
05:12 12.9 11.3 90 1018.4 4.5 S 6.9 0.0 0.1
05:13 12.9 11.3 90 1018.3 4.5 S 6.9 0.0 0.1
05:14 13.0 11.4 90 1018.4 5.4 S 6.9 0.0 0.1
05:15 13.0 11.4 90 1018.3 5.4 SE 6.9 0.0 0.1
05:16 13.0 11.4 90 1018.4 6.0 SE 6.9 0.0 0.1
05:17 13.0 11.4 90 1018.4 4.5 SE 6.9 0.0 0.1
05:18 13.1 11.5 90 1018.3 6.0 S 6.9 0.0 0.1
05:19 13.1 11.5 90 1018.3 6.0 SW 6.0 0.0 0.1
05:20 13.1 11.5 90 1018.3 6.0 SW 6.0 0.0 0.1
05:21 13.1 11.5 90 1018.3 5.4 S 6.0 0.0 0.1
05:22 13.1 11.5 90 1018.4 4.5 S 6.0 0.0 0.1
05:23 13.2 11.6 90 1018.5 10.7 SW 10.7 0.8 0.1
05:24 13.2 11.6 90 1018.6 11.4 SW 11.4 3.0 0.3
05:25 13.2 11.6 90 1018.6 8.3 SW 13.0 7.5 0.8
05:26 13.2 11.6 90 1018.5 13.6 SSW 13.6 8.3 0.8
05:27 13.3 11.7 90 1018.5 12.1 SE 13.6 8.3 0.8
05:28 13.3 11.7 90 1018.4 15.9 S 15.9 7.6 0.8
05:29 13.3 11.7 90 1018.3 13.0 SW 15.9 5.3 0.8
05:30 13.2 11.6 90 1018.4 9.8 S 15.9 0.8 0.8
05:31 13.3 11.7 90 1018.3 10.7 SW 15.9 0.0 0.8
05:33 13.2 11.6 90 1018.3 9.8 S 15.9 0.0 0.8
05:34 13.2 11.6 90 1018.3 10.7 SW 15.9 0.0 0.8
05:35 13.2 11.6 90 1018.3 9.8 SW 15.9 0.0 0.8
05:36 13.2 11.6 90 1018.3 10.7 SW 15.9 0.0 0.8
05:37 13.2 11.6 90 1018.3 13.0 SW 15.9 0.0 0.8
05:38 13.2 11.6 90 1018.4 9.8 S 13.0 0.0 0.8
05:39 13.2 11.6 90 1018.4 10.7 SW 13.0 0.0 0.8
05:40 13.2 11.6 90 1018.3 8.3 SE 13.0 0.0 0.8
05:41 13.2 11.6 90 1018.3 8.3 S 13.0 0.0 0.8
05:42 13.2 11.6 90 1018.4 9.2 SSE 13.0 0.0 0.8
05:43 13.2 11.6 90 1018.3 9.8 S 13.0 0.0 0.8
05:44 13.2 11.6 90 1018.3 9.2 S 13.0 0.0 0.8
05:45 13.2 11.6 90 1018.4 9.2 S 13.0 0.0 0.8
05:46 13.2 11.8 91 1018.4 13.0 SW 13.0 0.8 0.8
05:47 13.2 11.8 91 1018.5 11.4 SW 13.0 0.8 0.8
05:48 13.2 11.8 91 1018.4 13.6 S 13.6 0.8 0.8
05:49 13.2 11.8 91 1018.4 8.3 S 13.6 0.8 0.8
05:50 13.2 11.8 91 1018.3 12.1 S 13.6 1.5 0.9
05:51 13.2 11.8 91 1018.3 10.7 S 13.6 0.8 0.9
05:52 13.2 11.8 91 1018.3 12.1 S 14.5 0.8 0.9
05:53 13.2 11.8 91 1018.3 12.1 S 14.5 0.8 0.9
05:56 13.0 11.6 91 1018.3 9.8 S 14.5 0.8 0.9
05:57 13.0 11.6 91 1018.4 10.7 SW 14.5 0.8 1.0
05:58 12.9 11.5 91 1018.2 6.0 S 14.5 1.5 1.1
05:59 12.9 11.5 91 1018.3 8.3 S 14.5 1.5 1.1
06:00 12.9 11.5 91 1018.2 8.3 S 14.5 1.5 1.1
06:01 12.9 11.5 91 1018.3 8.3 S 14.5 1.5 1.1
06:02 12.8 11.4 91 1018.2 6.0 S 12.1 2.3 1.1
06:03 12.8 11.4 91 1018.2 9.8 S 11.4 1.5 1.1
06:04 12.8 11.4 91 1018.1 6.0 S 10.7 0.8 1.2
06:05 12.7 11.3 91 1018.3 7.6 SW 10.7 1.5 1.2
06:06 12.7 11.3 91 1018.2 6.0 S 10.7 1.5 1.2
06:07 12.7 11.3 91 1018.1 5.4 SE 10.7 0.8 1.2
06:08 12.7 11.3 91 1018.2 4.5 S 9.8 1.5 1.3
06:09 12.7 11.3 91 1018.0 6.9 S 9.8 1.5 1.3
06:10 12.7 11.3 91 1018.0 5.4 S 9.8 0.8 1.3
06:11 12.7 11.3 91 1018.2 7.6 S 9.8 0.8 1.3
06:12 12.7 11.3 91 1018.0 6.0 S 9.8 0.8 1.3
06:13 12.7 11.3 91 1018.1 5.4 S 9.8 0.0 1.3
06:15 12.7 11.3 91 1018.0 5.4 SSW 7.6 0.0 1.3
06:16 12.7 11.3 91 1018.0 6.0 E 7.6 0.0 1.3
06:18 12.7 11.3 91 1018.1 6.9 SW 7.6 0.8 1.3
06:19 12.7 11.3 91 1018.0 7.6 S 7.6 0.8 1.3
06:20 12.7 11.4 92 1018.2 7.6 SW 7.6 0.8 1.3
06:21 12.7 11.4 92 1018.0 5.4 SE 7.6 0.8 1.3
06:22 12.8 11.5 92 1018.1 6.0 SW 7.6 0.8 1.3
06:23 12.8 11.5 92 1018.0 5.4 SW 7.6 0.0 1.4
06:24 12.8 11.5 92 1018.0 6.0 S 7.6 0.8 1.4
06:25 12.8 11.5 92 1018.0 6.9 S 7.6 0.8 1.4
06:26 12.9 11.6 92 1018.0 5.4 S 7.6 0.8 1.4
06:27 12.9 11.6 92 1017.9 6.0 SE 7.6 0.8 1.4
06:28 12.9 11.6 92 1017.9 6.0 S 7.6 0.8 1.4
06:29 12.9 11.6 92 1017.9 6.0 SW 7.6 0.0 1.4
06:30 12.9 11.6 92 1017.9 5.4 S 7.6 0.0 1.4
06:31 13.0 11.7 92 1017.9 4.5 S 7.6 0.0 1.4
06:32 13.0 11.7 92 1017.9 8.3 S 8.3 0.0 1.4
06:33 13.0 11.7 92 1017.9 8.3 S 8.3 0.0 1.4
06:34 13.0 11.7 92 1017.8 9.2 S 9.2 0.0 1.4
06:35 13.1 12.0 93 1017.8 13.0 S 13.0 0.8 1.4
06:37 13.1 12.0 93 1017.9 6.0 S 13.0 1.5 1.5
06:38 13.2 12.1 93 1017.9 5.4 S 13.0 1.5 1.5
06:39 13.2 12.1 93 1018.0 6.9 SE 13.0 1.5 1.5
06:40 13.2 12.1 93 1017.8 7.6 S 13.0 0.8 1.5
06:41 13.2 12.1 93 1018.0 6.9 SW 13.0 0.8 1.5
06:42 13.2 12.1 93 1018.1 9.2 SW 13.0 0.0 1.5
06:43 13.3 12.2 93 1017.9 9.2 SW 13.0 0.0 1.5
06:44 13.3 12.2 93 1017.9 7.6 S 13.0 0.0 1.5
06:45 13.3 12.2 93 1017.9 8.3 SE 13.0 0.0 1.5
06:46 13.4 12.3 93 1018.1 11.4 SE 13.0 0.8 1.6
06:47 13.4 12.3 93 1018.2 13.6 S 13.6 0.8 1.6
06:48 13.4 12.3 93 1018.2 13.6 S 13.6 0.8 1.6
06:49 13.4 12.3 93 1017.9 12.1 S 13.6 0.8 1.6
06:50 13.5 12.6 94 1017.8 12.1 SW 13.6 0.8 1.6
06:51 13.5 12.6 94 1017.8 10.7 SE 13.6 0.0 1.6
06:52 13.5 12.6 94 1018.1 10.7 SE 13.6 0.0 1.6
06:53 13.5 12.6 94 1018.1 10.7 SE 13.6 0.0 1.6
06:54 13.6 12.7 94 1017.9 9.2 SSW 13.6 0.0 1.6
06:55 13.6 12.7 94 1017.9 10.7 SW 13.6 0.0 1.6
06:56 13.6 12.7 94 1018.1 11.4 SW 13.6 0.0 1.6
06:57 13.6 12.7 94 1018.1 10.7 SW 13.6 0.0 1.6
06:58 13.6 12.7 94 1017.9 6.9 S 12.1 0.0 1.6
06:59 13.6 12.7 94 1018.0 10.7 NW 12.1 0.0 1.6
07:00 13.6 12.7 94 1017.9 10.7 SW 12.1 0.0 1.6
07:01 13.6 12.7 94 1018.0 10.7 SW 11.4 0.0 1.6
07:02 13.7 12.8 94 1018.0 6.0 S 11.4 0.0 1.6
07:03 13.7 12.8 94 1018.0 11.4 S 11.4 0.8 1.6
07:04 13.7 12.8 94 1018.0 8.3 SW 11.4 1.5 1.8
07:05 13.7 12.8 94 1017.9 9.8 SW 11.4 3.0 1.9
07:06 13.7 12.8 94 1017.9 7.6 SW 11.4 3.8 2.0
07:07 13.8 13.0 95 1017.8 6.9 WNW 11.4 6.0 2.1
07:08 13.7 12.8 94 1017.9 8.3 S 11.4 6.0 2.1
07:09 13.8 13.0 95 1018.0 4.5 W 11.4 6.0 2.3
07:10 13.8 13.0 95 1017.8 6.9 SW 11.4 5.3 2.3
07:11 13.8 13.0 95 1017.8 7.6 WSW 11.4 6.0 2.5
07:12 13.8 13.0 95 1018.0 5.4 W 11.4 4.5 2.6
07:14 13.8 13.0 95 1017.8 9.8 NW 9.8 11.3 4.2
07:15 13.8 13.0 95 1017.8 10.7 SW 10.7 22.7 4.2
07:16 13.8 13.0 95 1017.9 9.8 SW 10.7 21.2 4.2
07:17 13.8 13.0 95 1017.9 9.8 S 10.7 20.4 4.2
07:18 13.8 13.0 95 1017.9 9.8 S 13.0 18.1 4.2
07:19 13.8 13.0 95 1018.0 12.1 SW 13.0 12.9 4.2
07:20 13.8 13.0 95 1017.9 12.1 SW 13.0 0.8 4.2
07:21 13.8 13.0 95 1017.9 9.8 S 13.0 0.8 4.2
07:22 13.8 13.0 95 1017.9 11.4 S 13.0 0.8 4.2
07:23 13.9 13.3 96 1018.0 10.7 SW 13.0 0.8 4.2
07:24 13.9 13.3 96 1018.1 11.4 SW 13.0 0.0 4.2
07:25 13.9 13.3 96 1018.0 8.3 S 13.0 0.0 4.2
07:26 13.9 13.3 96 1017.9 9.8 SW 13.0 0.0 4.2
07:27 13.9 13.3 96 1017.9 9.8 SW 13.0 0.0 4.2
07:28 13.9 13.3 96 1018.0 10.7 SW 13.0 0.0 4.2
07:29 13.9 13.3 96 1017.9 6.9 S 12.1 0.0 4.2
07:30 13.9 13.3 96 1018.0 7.6 SW 12.1 0.0 4.2
07:31 13.9 13.3 96 1017.9 8.3 SSW 11.4 0.0 4.2
07:32 13.9 13.3 96 1017.9 8.3 SW 11.4 0.0 4.2
07:33 13.9 13.3 96 1018.0 8.3 SW 11.4 0.0 4.2
07:34 14.0 13.5 97 1017.9 7.6 SW 10.7 0.0 4.2
07:35 14.0 13.5 97 1018.0 8.3 S 10.7 0.0 4.2
07:36 14.0 13.5 97 1018.1 11.4 SW 11.4 0.0 4.2
07:38 14.0 13.5 97 1017.9 10.7 SW 11.4 0.0 4.2
07:39 14.0 13.5 97 1018.0 8.3 SW 11.4 0.0 4.2
07:40 14.0 13.5 97 1018.0 8.3 SW 11.4 0.0 4.2
07:41 14.0 13.5 97 1018.0 9.2 NW 11.4 0.0 4.2
07:42 14.0 13.5 97 1018.0 9.2 SW 11.4 0.0 4.2
07:43 14.1 13.6 97 1018.0 7.6 SW 11.4 0.0 4.2
07:44 14.1 13.6 97 1017.9 8.3 SW 11.4 0.0 4.2
07:45 14.1 13.6 97 1017.9 8.3 SW 11.4 0.0 4.2
07:46 14.1 13.6 97 1017.9 6.0 SW 11.4 0.0 4.2
07:47 14.2 13.9 98 1018.1 8.3 SW 10.7 0.0 4.2
07:48 14.1 13.8 98 1018.1 9.2 SW 10.7 0.0 4.2
07:49 14.1 13.8 98 1018.0 9.2 W 9.2 0.0 4.2
07:50 14.2 13.9 98 1018.0 6.9 SW 9.2 0.0 4.2
07:51 14.2 13.9 98 1018.0 8.3 S 9.2 0.0 4.2
07:52 14.2 13.9 98 1018.1 6.9 S 9.2 0.0 4.2
07:53 14.3 14.0 98 1018.0 7.6 SSW 9.2 0.0 4.2
07:54 14.3 14.0 98 1018.1 8.3 S 9.2 0.0 4.2
07:55 14.3 14.0 98 1018.0 6.9 S 9.2 0.0 4.2
07:56 14.4 14.1 98 1018.0 7.6 S 9.2 0.0 4.2
07:57 14.3 14.0 98 1018.0 12.1 SW 12.1 0.0 4.2
07:58 14.4 14.1 98 1018.1 13.6 S 13.6 0.0 4.2
07:59 14.4 14.1 98 1018.1 9.8 SW 13.6 0.0 4.2
08:00 14.4 14.3 99 1018.2 8.3 SW 13.6 0.0 4.2
08:01 14.4 14.3 99 1018.1 12.1 S 13.6 0.0 4.2
08:03 14.4 14.3 99 1018.1 11.4 S 13.6 0.0 4.2
08:04 14.5 14.4 99 1018.0 15.2 NNW 15.2 0.0 4.2
08:05 14.5 14.4 99 1018.1 11.4 S 15.2 0.0 4.2
08:06 14.5 14.4 99 1018.1 10.7 S 15.2 0.0 4.2
08:07 14.5 14.4 99 1018.1 14.5 S 15.2 0.0 4.2
08:08 14.5 14.4 99 1018.2 12.1 SW 15.2 0.0 4.2
08:09 14.6 14.5 99 1018.0 13.6 SW 15.2 0.0 4.2
08:10 14.6 14.5 99 1018.1 11.4 S 15.2 0.0 4.2
08:11 14.6 14.5 99 1018.1 10.7 SW 15.2 0.0 4.2
08:12 14.6 14.5 99 1018.2 10.7 SE 15.2 0.0 4.2
08:13 14.6 14.5 99 1018.2 16.8 S 16.8 0.0 4.2
08:14 14.7 14.6 99 1018.2 14.5 S 16.8 0.0 4.2
08:15 14.7 14.6 99 1018.1 11.4 S 16.8 0.0 4.2
08:16 14.7 14.6 99 1018.3 13.0 SW 16.8 0.8 4.3
08:17 14.7 14.6 99 1018.1 9.8 SW 16.8 0.8 4.3
08:18 14.7 14.6 99 1018.4 7.6 SE 16.8 0.8 4.3
08:19 14.7 14.6 99 1018.1 13.6 SW 16.8 0.8 4.3
08:20 14.7 14.6 99 1018.3 10.7 S 16.8 0.8 4.3
08:21 14.7 14.6 99 1018.2 9.8 SSW 16.8 0.0 4.3
08:22 14.7 14.6 99 1018.2 9.2 NNE 16.8 0.0 4.3
08:23 14.7 14.6 99 1018.2 9.2 SW 16.8 0.0 4.3
08:24 14.7 14.6 99 1018.4 9.8 SW 14.5 0.0 4.3
08:25 14.7 14.6 99 1018.3 13.0 SW 13.6 0.0 4.3
08:27 14.8 14.7 99 1018.3 13.0 SW 13.6 0.0 4.3
08:28 14.8 14.7 99 1018.2 10.7 S 13.6 0.0 4.3
08:30 14.8 14.7 99 1018.4 8.3 S 13.0 0.0 4.3
08:31 14.8 14.7 99 1018.4 11.4 SW 13.0 0.0 4.3
08:32 14.8 14.7 99 1018.4 9.2 SW 13.0 0.0 4.3
08:33 14.9 14.8 99 1018.4 10.7 W 15.2 0.0 4.3
08:34 14.9 14.8 99 1018.2 9.8 SW 15.2 0.0 4.3
08:35 14.9 14.8 99 1018.3 10.7 NW 15.2 0.0 4.3
08:36 15.0 14.9 99 1018.3 9.2 S 15.2 0.0 4.3
08:37 15.0 14.9 99 1018.2 11.4 SW 15.2 0.0 4.3
08:38 15.0 14.9 99 1018.4 15.9 SW 15.9 0.0 4.3
08:39 15.0 14.9 99 1018.3 13.6 SW 15.9 0.0 4.3
08:40 15.0 14.9 99 1018.3 15.2 W 16.8 0.0 4.3
08:41 15.1 15.0 99 1018.4 13.6 SW 16.8 0.0 4.3
08:42 15.1 15.0 99 1018.3 9.2 SW 16.8 0.0 4.3
08:43 15.1 15.0 99 1018.3 12.1 S 16.8 0.0 4.3
08:44 15.1 15.0 99 1018.4 13.0 SW 16.8 0.0 4.3
08:45 15.1 15.0 99 1018.4 13.0 WSW 16.8 0.0 4.3
08:46 15.1 15.0 99 1018.4 9.8 SW 16.8 0.0 4.3
08:47 15.1 15.0 99 1018.6 13.6 NW 16.8 0.0 4.3
08:48 15.1 15.0 99 1018.5 13.6 SW 16.8 0.0 4.3
08:49 15.1 15.0 99 1018.5 15.9 SW 16.8 0.0 4.3
08:50 15.1 15.0 99 1018.5 13.0 NW 15.9 0.0 4.3
08:51 15.1 15.0 99 1018.4 12.1 SW 15.9 0.0 4.3
08:52 15.1 15.0 99 1018.4 15.9 W 15.9 0.0 4.3
08:53 15.1 15.0 99 1018.4 11.4 S 15.9 0.0 4.3
08:54 15.1 15.0 99 1018.5 13.0 SW 15.9 0.0 4.3
08:56 15.1 15.0 99 1018.4 9.2 SW 15.9 0.0 4.3
08:57 15.2 15.1 99 1018.6 12.1 SW 15.9 0.0 4.3
08:58 15.2 15.1 99 1018.4 12.1 SW 15.9 0.0 4.3
08:59 15.2 15.1 99 1018.4 11.4 SW 15.9 0.0 4.3
09:00 15.2 15.1 99 1018.4 11.4 SW 15.9 0.0 4.3
09:01 15.2 15.1 99 1018.5 11.4 SW 15.9 0.0 4.3
09:02 15.3 15.2 99 1018.4 9.8 S 15.9 0.0 4.3
09:03 15.3 15.2 99 1018.4 13.0 SW 13.0 0.0 4.3
09:04 15.3 15.2 99 1018.5 15.2 SW 15.2 0.0 4.3
09:05 15.4 15.3 99 1018.4 12.1 SW 15.2 0.0 4.3
09:06 15.4 15.3 99 1018.5 9.2 SW 15.2 0.0 4.3
09:07 15.5 15.4 99 1018.5 7.6 SSW 15.2 0.0 4.3
09:08 15.5 15.4 99 1018.5 15.2 SW 15.2 0.0 4.3
09:09 15.5 15.4 99 1018.6 12.1 W 15.2 0.0 4.3
09:10 15.5 15.4 99 1018.5 11.4 SW 16.8 0.0 4.3
09:11 15.5 15.4 99 1018.5 11.4 SW 16.8 0.0 4.3
09:12 15.5 15.4 99 1018.7 13.0 SW 16.8 0.0 4.3
09:13 15.5 15.4 99 1018.7 13.0 SW 16.8 0.0 4.3
09:14 15.5 15.4 99 1018.6 10.7 SW 16.8 0.0 4.3
09:15 15.5 15.4 99 1018.6 14.5 S 16.8 0.0 4.3
09:16 15.5 15.4 99 1018.6 13.6 SW 16.8 0.0 4.3
09:17 15.5 15.4 99 1018.7 13.6 SW 16.8 0.0 4.3
09:18 15.5 15.4 99 1018.6 13.6 SW 16.8 0.0 4.3
09:19 15.6 15.5 99 1018.5 13.0 SW 16.8 0.0 4.3
09:20 15.6 15.5 99 1018.5 10.7 W 16.8 0.0 4.3
09:21 15.6 15.5 99 1018.6 9.2 S 15.2 0.0 4.3
09:22 15.6 15.5 99 1018.6 9.8 SW 15.2 0.0 4.3
09:23 15.6 15.5 99 1018.5 11.4 S 14.5 0.0 4.3
09:24 15.6 15.5 99 1018.5 10.7 SW 14.5 0.0 4.3
09:25 15.6 15.5 99 1018.7 11.4 SW 14.5 0.0 4.3
09:26 15.6 15.5 99 1018.7 9.2 SW 14.5 0.8 4.3
09:28 15.5 15.4 99 1018.7 15.2 SW 15.2 0.8 4.3
09:29 15.5 15.4 99 1018.7 13.0 SW 15.2 0.8 4.3
09:30 15.5 15.4 99 1018.7 20.6 NW 20.6 0.8 4.3
09:31 15.5 15.4 99 1018.8 13.6 SW 20.6 0.0 4.3
09:32 15.4 15.3 99 1018.8 15.9 SW 20.6 0.0 4.3
09:33 15.5 15.4 99 1018.8 12.1 S 20.6 0.0 4.3
09:34 15.4 15.3 99 1018.8 13.6 SW 20.6 0.0 4.3
09:35 15.4 15.3 99 1018.8 13.6 SW 20.6 0.0 4.3
09:36 15.4 15.3 99 1018.9 16.8 NW 20.6 0.0 4.3
09:37 15.4 15.3 99 1018.8 18.3 SW 20.6 0.0 4.3
09:38 15.4 15.3 99 1018.7 13.6 SW 20.6 0.0 4.3
09:39 15.4 15.3 99 1018.7 13.0 SW 20.6 0.0 4.3
09:40 15.3 15.2 99 1018.7 14.5 SW 20.6 0.0 4.4
09:41 15.3 15.2 99 1018.7 18.3 S 18.3 0.8 4.4
09:42 15.3 15.2 99 1018.8 9.8 SW 18.3 0.8 4.4
09:43 15.3 15.2 99 1018.8 10.7 WNW 18.3 0.8 4.4
09:44 15.2 15.1 99 1018.8 12.1 S 18.3 0.8 4.4
09:45 15.2 15.1 99 1018.8 14.5 SW 18.3 0.8 4.4
09:46 15.2 15.1 99 1018.7 11.4 SW 18.3 0.0 4.4
09:47 15.2 15.1 99 1019.0 14.5 WSW 18.3 0.0 4.4
09:48 15.2 15.1 99 1018.8 10.7 S 18.3 0.0 4.4
09:49 15.2 15.1 99 1018.8 14.5 NW 18.3 0.0 4.4
09:51 15.2 15.1 99 1018.8 9.8 WNW 14.5 0.0 4.4
09:52 15.2 15.1 99 1018.8 9.8 SW 14.5 0.0 4.4
09:54 15.4 15.3 99 1018.7 16.8 NW 16.8 0.0 4.4
09:55 15.4 15.3 99 1018.8 15.2 SW 16.8 0.0 4.4
09:56 15.4 15.3 99 1018.7 14.5 SSW 16.8 0.0 4.4
09:57 15.4 15.3 99 1018.7 10.7 SW 16.8 0.0 4.4
09:58 15.5 15.4 99 1018.8 11.4 NW 16.8 0.0 4.4
09:59 15.5 15.4 99 1018.7 13.6 SW 16.8 0.0 4.4
10:00 15.5 15.4 99 1018.8 13.6 SW 16.8 0.0 4.4
10:01 15.5 15.4 99 1018.8 13.6 SW 16.8 0.0 4.4
10:02 15.7 15.6 99 1018.7 11.4 SW 16.8 0.0 4.4
10:03 15.7 15.6 99 1018.9 9.8 SW 16.8 0.0 4.4
10:04 15.8 15.7 99 1018.8 11.4 SSW 16.8 0.0 4.4
10:06 15.8 15.7 99 1018.6 12.1 WNW 13.6 0.0 4.4
10:07 15.8 15.7 99 1018.8 13.0 S 13.6 0.0 4.4
10:08 15.8 15.7 99 1018.8 13.6 SW 13.6 0.0 4.4
10:09 15.8 15.7 99 1018.7 13.0 WNW 13.6 0.0 4.4
10:10 15.8 15.7 99 1018.9 13.6 S 13.6 0.0 4.4
10:11 15.8 15.7 99 1018.9 12.1 W 13.6 0.0 4.4
10:12 15.8 15.7 99 1018.8 16.8 NW 16.8 0.0 4.4
10:13 15.8 15.7 99 1018.8 16.8 NW 16.8 0.0 4.4
10:14 15.8 15.7 99 1018.9 15.9 WSW 16.8 0.0 4.4
10:15 15.7 15.6 99 1018.9 15.9 WSW 16.8 0.0 4.4
10:16 15.8 15.7 99 1018.7 9.8 W 16.8 0.0 4.4
10:17 15.7 15.6 99 1018.8 7.6 SW 16.8 0.0 4.4
10:18 15.7 15.6 99 1018.8 8.3 SW 16.8 0.0 4.4
10:19 15.8 15.7 99 1018.8 9.2 W 16.8 0.0 4.4
10:20 15.8 15.7 99 1018.8 7.6 SW 16.8 0.0 4.4
10:21 15.8 15.7 99 1018.8 12.1 SW 16.8 0.0 4.4
10:22 15.9 15.8 99 1018.9 16.8 SW 16.8 0.0 4.4
10:23 16.0 15.9 99 1018.7 15.2 W 16.8 0.0 4.4
10:25 16.0 15.9 99 1018.8 17.4 SW 17.4 0.0 4.4
10:26 16.1 16.0 99 1018.7 11.4 NW 17.4 0.0 4.4
10:27 16.1 16.0 99 1018.8 16.8 NNE 17.4 0.0 4.4
10:28 16.1 16.0 99 1018.9 11.4 SW 17.4 0.0 4.4
10:29 16.1 16.0 99 1018.9 17.4 WNW 17.4 0.0 4.4
10:31 16.2 16.1 99 1018.8 18.3 SW 18.3 0.0 4.4
10:32 16.2 16.1 99 1018.7 16.8 SW 18.3 0.0 4.4
10:34 16.2 16.1 99 1018.8 15.2 SW 19.0 0.0 4.4
10:35 16.2 16.1 99 1018.8 15.2 SW 19.0 0.0 4.4
10:36 16.2 16.1 99 1018.7 15.2 W 19.0 0.0 4.4
10:37 16.2 16.1 99 1018.6 11.4 SW 19.0 0.0 4.4
10:38 16.2 16.1 99 1018.9 10.7 SW 19.0 0.0 4.4
10:39 16.2 16.1 99 1018.9 13.6 SW 19.0 0.0 4.4
10:40 16.2 16.1 99 1018.7 13.6 SW 19.0 0.0 4.4
10:41 16.2 16.1 99 1018.9 15.2 SW 19.0 0.0 4.4
10:42 16.2 16.1 99 1018.9 16.8 SW 19.0 0.0 4.4
10:43 16.2 16.1 99 1018.9 16.8 W 19.0 0.0 4.4
10:44 16.2 16.1 99 1018.9 13.6 SW 16.8 0.0 4.4
10:45 16.2 16.1 99 1019.0 15.2 SW 16.8 0.0 4.4
10:46 16.2 16.1 99 1019.0 15.9 SW 16.8 0.0 4.4
10:47 16.2 16.1 99 1018.9 14.5 NW 16.8 0.0 4.4
10:48 16.2 16.1 99 1018.9 15.9 SW 16.8 0.0 4.4
10:49 16.2 16.1 99 1019.1 15.2 NW 16.8 0.0 4.4
10:50 16.2 16.1 99 1019.0 15.2 SW 16.8 0.0 4.4
10:51 16.2 16.1 99 1019.0 10.7 SW 16.8 0.0 4.4
10:52 16.2 16.1 99 1019.0 14.5 SW 16.8 0.0 4.4
10:53 16.2 16.1 99 1019.0 10.7 SW 16.8 0.0 4.4
10:54 16.2 16.1 99 1019.0 15.9 S 16.8 0.0 4.4
10:55 16.3 16.2 99 1019.0 13.6 NW 16.8 0.0 4.4
10:56 16.3 16.2 99 1018.8 17.4 NW 17.4 0.0 4.4
10:57 16.3 16.2 99 1018.9 15.2 SW 17.4 0.0 4.4
10:58 16.3 16.2 99 1018.8 14.5 SW 17.4 0.0 4.4
10:59 16.3 16.2 99 1018.7 13.0 SW 17.4 0.0 4.4
11:01 16.4 16.3 99 1019.0 14.5 SW 17.4 0.0 4.4
11:02 16.4 16.3 99 1018.8 10.7 SSW 17.4 0.0 4.4
11:03 16.4 16.3 99 1018.7 9.8 S 17.4 0.0 4.4
11:04 16.4 16.3 99 1018.9 12.1 SW 17.4 0.0 4.4
11:05 16.4 16.3 99 1019.0 13.0 W 17.4 0.0 4.4
11:06 16.4 16.3 99 1019.0 13.6 SW 15.2 0.0 4.4
11:08 16.4 16.3 99 1019.1 11.4 SW 15.2 0.0 4.4
11:09 16.4 16.3 99 1019.0 12.1 NNW 14.5 0.0 4.4
11:10 16.4 16.3 99 1019.0 13.6 SW 14.5 0.0 4.4
11:11 16.4 16.3 99 1019.1 14.5 S 14.5 0.0 4.4
11:12 16.4 16.3 99 1019.0 14.5 WNW 14.5 0.0 4.4
11:13 16.4 16.3 99 1019.2 9.8 S 14.5 0.0 4.4
11:14 16.4 16.3 99 1019.0 13.6 WSW 14.5 0.0 4.4
11:15 16.4 16.3 99 1019.1 15.2 SW 15.2 0.0 4.4
11:16 16.7 16.6 99 1019.1 13.6 SW 16.8 0.0 4.4
11:17 16.8 16.5 98 1019.0 14.5 SW 16.8 0.0 4.4
11:18 16.9 16.6 98 1019.0 13.0 SW 16.8 0.0 4.4
11:19 17.0 16.7 98 1019.0 14.5 SW 16.8 0.0 4.4
11:20 17.1 16.8 98 1019.1 19.0 S 19.0 0.0 4.4
11:21 17.1 16.8 98 1019.1 19.0 S 19.0 0.0 4.4
11:22 17.1 16.6 97 1019.1 15.2 SW 19.0 0.0 4.4
11:23 17.1 16.6 97 1019.1 10.7 SW 19.0 0.0 4.4
11:24 17.2 16.6 96 1019.1 19.7 SW 19.7 0.0 4.4
11:25 17.2 16.6 96 1019.2 19.0 S 19.7 0.0 4.4
11:27 17.4 16.6 95 1019.1 15.9 SW 19.7 0.0 4.4
11:28 17.4 16.6 95 1019.2 15.2 SW 19.7 0.0 4.4
11:29 17.4 16.6 95 1019.0 15.2 SW 19.7 0.0 4.4
11:30 17.4 16.6 95 1019.2 15.2 S 19.7 0.0 4.4
11:31 17.4 16.6 95 1019.3 16.8 S 19.7 0.0 4.4
11:32 17.4 16.6 95 1019.1 15.2 SW 19.7 0.0 4.4
11:33 17.3 16.5 95 1019.1 16.8 WSW 19.7 0.0 4.4
11:34 17.4 16.6 95 1019.1 12.1 NW 19.0 0.0 4.4
11:35 17.3 16.3 94 1019.2 19.0 SW 19.0 0.0 4.4
11:36 17.3 16.3 94 1019.3 15.9 S 19.0 0.0 4.4
11:37 17.3 16.3 94 1019.2 16.8 SW 19.0 0.0 4.4
11:39 17.2 16.2 94 1019.4 19.7 SW 19.7 0.0 4.4
11:40 17.2 16.2 94 1019.3 18.3 SW 19.7 0.0 4.4
11:41 17.2 16.2 94 1019.4 16.8 SW 19.7 0.0 4.4
11:42 17.1 16.1 94 1019.5 13.0 SW 19.7 0.0 4.4
11:43 17.0 16.0 94 1019.3 18.3 SW 19.7 0.0 4.4
11:44 16.9 15.9 94 1019.7 15.9 WSW 20.6 0.8 4.5
11:45 16.8 15.8 94 1019.5 19.0 WNW 20.6 1.5 4.7
11:46 16.7 15.7 94 1019.4 15.9 NW 20.6 3.8 4.7
11:47 16.6 15.6 94 1019.5 13.0 W 20.6 4.5 4.8
11:48 16.5 15.4 93 1019.5 14.5 S 20.6 6.0 4.9
11:49 16.3 15.3 94 1019.5 9.8 SW 20.6 6.0 5.0
11:50 16.2 15.2 94 1019.5 11.4 SW 20.6 6.0 5.0
11:51 16.1 15.1 94 1019.5 11.4 SW 20.6 3.8 5.0
11:52 16.0 15.0 94 1019.6 10.7 WSW 20.6 3.0 5.0
11:53 16.0 15.0 94 1019.6 10.7 SW 20.6 1.5 5.0
11:54 15.9 14.9 94 1019.6 10.7 W 19.0 0.8 5.0
11:55 15.9 14.9 94 1019.5 9.8 SE 19.0 0.0 5.0
11:56 15.9 14.9 94 1019.5 9.8 W 15.9 0.0 5.0
11:57 15.9 15.1 95 1019.4 12.1 SSE 14.5 0.0 5.0
11:58 16.0 15.2 95 1019.5 13.0 W 14.5 0.0 5.0
11:59 16.1 15.5 96 1019.5 14.5 SW 14.5 0.0 5.0
12:00 16.1 15.5 96 1019.3 15.9 WSW 15.9 0.0 5.0
12:01 16.1 15.5 96 1019.5 15.9 WSW 15.9 0.0 5.0
12:02 16.3 15.7 96 1019.5 11.4 SW 15.9 0.0 5.0
12:03 16.3 15.7 96 1019.5 10.7 WNW 15.9 0.0 5.0
12:04 16.4 15.8 96 1019.7 14.5 WSW 15.9 0.0 5.0
12:05 16.4 15.8 96 1019.5 15.9 WSW 15.9 0.0 5.0
12:07 16.4 15.8 96 1019.7 14.5 W 15.9 0.0 5.0
12:08 16.4 15.8 96 1019.6 12.1 W 15.9 0.0 5.0
12:09 16.4 15.8 96 1019.7 14.5 NW 15.9 0.0 5.0
12:10 16.3 15.7 96 1019.8 13.6 SW 15.9 0.0 5.0
12:11 16.2 15.6 96 1019.9 16.8 S 16.8 0.8 5.1
12:12 16.1 15.5 96 1019.9 22.1 WSW 22.1 0.8 5.1
12:13 16.0 15.4 96 1019.9 13.6 W 22.1 0.8 5.1
12:14 16.0 15.4 96 1019.8 11.4 S 22.1 0.8 5.1
12:15 15.9 15.3 96 1020.0 15.9 SW 22.1 0.8 5.1
12:16 15.8 15.2 96 1019.8 15.9 WNW 22.1 0.0 5.1
12:17 15.8 15.2 96 1020.0 12.1 SW 22.1 0.0 5.1
12:18 15.8 15.2 96 1019.9 18.3 SW 22.1 0.0 5.1
12:19 15.7 15.1 96 1019.9 15.9 SW 22.1 0.0 5.1
12:20 15.7 15.1 96 1020.1 16.8 S 22.1 0.0 5.2
12:21 15.7 15.1 96 1020.1 16.8 S 22.1 0.8 5.2
12:22 15.7 15.1 96 1020.0 18.3 S 22.1 1.5 5.2
12:23 15.7 15.1 96 1020.0 15.2 S 18.3 2.3 5.3
12:24 15.6 15.0 96 1020.1 13.6 W 18.3 2.3 5.3
12:25 15.6 15.0 96 1019.9 15.2 W 18.3 3.0 5.4
12:26 15.6 15.0 96 1020.1 9.8 S 18.3 2.3 5.4
12:27 15.6 15.0 96 1020.0 13.6 NW 18.3 1.5 5.4
12:29 15.6 15.0 96 1020.0 14.5 SW 18.3 1.5 5.4
12:30 15.5 14.9 96 1020.3 18.3 SW 18.3 1.5 5.5
12:31 15.5 14.9 96 1020.0 13.6 SW 18.3 1.5 5.5
12:32 15.5 14.9 96 1020.1 15.2 SW 18.3 2.3 5.5
12:33 15.4 14.8 96 1020.1 14.5 SW 18.3 2.3 5.5
12:34 15.4 14.8 96 1020.1 9.8 SW 18.3 1.5 5.5
12:35 15.4 14.9 97 1020.3 9.2 W 18.3 1.5 5.6
12:36 15.3 14.8 97 1020.0 13.6 W 18.3 1.5 5.6
12:37 15.3 14.8 97 1020.1 11.4 SW 18.3 0.8 5.7
12:38 15.3 14.8 97 1020.1 9.2 SW 18.3 1.5 5.7
12:39 15.3 14.8 97 1020.0 8.3 WSW 18.3 1.5 5.7
12:40 15.3 14.8 97 1020.1 10.7 SW 16.8 0.8 5.7
12:41 15.2 14.7 97 1020.0 12.1 W 16.8 0.8 5.7
12:42 15.2 14.7 97 1020.1 13.0 WSW 16.8 0.8 5.7
12:43 15.2 14.7 97 1019.8 9.2 SW 16.8 0.0 5.7
12:44 15.2 14.7 97 1019.9 9.2 SE 16.8 0.8 5.7
12:45 15.2 14.7 97 1019.7 6.9 SW 16.8 0.8 5.7
12:46 15.2 14.7 97 1019.7 5.4 SW 13.6 0.8 5.7
12:47 15.3 14.8 97 1019.8 4.5 W 13.0 0.8 5.7
12:48 15.4 14.9 97 1019.6 7.6 SSW 13.0 0.8 5.7
12:49 15.5 15.2 98 1019.7 6.9 NW 13.0 0.0 5.7
12:50 15.5 15.2 98 1019.6 6.0 WNW 13.0 0.0 5.7
12:51 15.6 15.3 98 1019.8 7.6 NW 13.0 0.0 5.7
12:52 15.7 15.4 98 1019.8 6.0 SW 11.4 0.0 5.7
12:53 15.7 15.4 98 1019.8 6.0 SW 11.4 0.0 5.7
12:54 15.7 15.4 98 1019.6 9.8 W 9.8 0.0 5.7
12:55 15.7 15.4 98 1019.6 10.7 NW 10.7 0.0 5.7
12:56 15.8 15.5 98 1019.8 9.8 SW 10.7 0.0 5.7
12:57 15.8 15.5 98 1019.7 10.7 SW 10.7 0.0 5.7
12:58 15.9 15.6 98 1019.8 9.2 W 10.7 0.0 5.7
12:59 15.9 15.6 98 1019.8 13.0 SW 13.0 0.0 5.7
13:00 15.9 15.6 98 1019.7 11.4 W 13.0 0.0 5.7
13:01 15.9 15.6 98 1019.8 11.4 W 13.0 0.0 5.7
13:03 16.2 15.9 98 1019.8 9.8 SW 13.0 0.0 5.7
13:04 16.2 15.9 98 1019.8 9.8 S 13.0 0.0 5.7
13:05 16.3 16.0 98 1019.9 6.9 W 13.0 0.0 5.7
13:06 16.4 16.1 98 1019.8 11.4 SW 13.0 0.0 5.7
13:07 16.4 16.1 98 1019.7 13.6 SW 13.6 0.0 5.7
13:08 16.5 16.2 98 1019.8 12.1 S 13.6 0.0 5.7
13:10 16.5 16.2 98 1019.8 10.7 S 13.6 0.0 5.7
13:11 16.5 16.2 98 1019.8 12.1 SW 13.6 0.0 5.7
13:12 16.6 16.3 98 1019.8 10.7 SW 13.6 0.0 5.7
13:13 16.7 16.4 98 1019.8 13.6 SW 13.6 0.0 5.7
13:14 16.8 16.5 98 1019.9 11.4 SW 13.6 0.0 5.7
13:15 16.9 16.4 97 1019.8 12.1 SW 13.6 0.0 5.7
13:16 17.0 16.5 97 1019.8 13.0 SW 13.6 0.0 5.7
13:17 17.0 16.5 97 1020.0 12.1 SW 13.6 0.0 5.7
13:18 17.0 16.5 97 1019.8 11.4 SW 13.6 0.0 5.7
13:19 17.1 16.6 97 1019.9 11.4 S 13.6 0.0 5.7
13:20 17.1 16.6 97 1019.8 15.9 SW 15.9 0.0 5.7
13:21 17.1 16.6 97 1020.0 15.2 W 15.9 0.0 5.7
13:22 17.1 16.6 97 1019.9 12.1 WNW 15.9 0.0 5.7
13:23 17.1 16.6 97 1020.1 13.0 WSW 15.9 0.0 5.7
13:24 17.1 16.6 97 1020.1 13.6 SW 15.9 0.0 5.7
13:25 17.0 16.5 97 1019.9 13.0 SW 15.9 0.0 5.7
13:26 17.0 16.5 97 1019.9 17.4 WNW 17.4 0.0 5.7
13:27 16.9 16.3 96 1019.9 13.6 NW 17.4 0.0 5.7
13:28 16.9 16.3 96 1020.1 15.9 W 17.4 0.0 5.7
13:29 16.9 16.3 96 1020.1 15.9 W 17.4 0.0 5.7
13:30 16.8 16.2 96 1020.0 13.0 NW 17.4 0.0 5.7
13:31 16.7 16.1 96 1020.0 15.2 W 17.4 0.0 5.7
13:32 16.7 16.1 96 1020.0 15.2 W 17.4 0.0 5.7
13:33 16.7 16.1 96 1019.9 12.1 SW 17.4 0.0 5.7
13:34 16.7 16.1 96 1020.2 14.5 NW 17.4 0.0 5.7
13:35 16.7 16.1 96 1020.0 22.8 W 22.8 0.0 5.7
13:36 16.7 16.1 96 1020.0 11.4 W 22.8 0.0 5.7
13:37 16.7 16.1 96 1020.0 16.8 SW 22.8 0.0 5.7
13:39 16.7 15.9 95 1019.9 12.1 SW 22.8 0.0 5.7
13:40 16.7 15.9 95 1019.9 13.6 NW 22.8 0.0 5.7
13:41 16.7 15.9 95 1020.2 16.8 S 22.8 0.0 5.7
13:42 16.8 16.0 95 1019.9 13.0 ENE 22.8 0.0 5.7
13:43 16.7 15.9 95 1020.1 16.8 S 22.8 0.0 5.7
13:44 16.7 15.9 95 1020.0 13.6 SW 22.8 0.0 5.7
13:45 16.7 15.9 95 1020.1 11.4 SW 19.7 0.0 5.7
13:46 16.7 15.9 95 1020.2 11.4 WSW 19.7 0.0 5.7
13:47 16.7 15.9 95 1020.0 10.7 W 19.7 0.0 5.7
13:48 16.7 15.9 95 1020.1 13.6 SW 19.7 0.0 5.7
13:49 16.7 15.9 95 1020.0 12.1 SW 19.7 0.0 5.7
13:50 16.8 16.0 95 1020.2 9.2 W 19.7 0.0 5.7
13:51 16.8 16.0 95 1020.2 11.4 W 19.7 0.0 5.7
13:52 16.9 16.1 95 1020.3 13.0 SW 19.7 0.0 5.7
13:53 16.9 16.1 95 1020.3 16.8 SW 16.8 0.0 5.7
13:54 16.9 15.9 94 1020.3 15.9 NE 16.8 0.0 5.7
13:55 17.0 16.0 94 1020.3 16.8 W 16.8 0.0 5.7
13:56 17.0 16.0 94 1020.2 15.2 W 16.8 0.0 5.7
13:57 17.0 15.9 93 1020.3 15.9 WNW 16.8 0.0 5.7
13:58 17.0 15.9 93 1020.2 16.8 WSW 16.8 0.0 5.7
13:59 17.0 15.7 92 1020.3 15.2 WSW 16.8 0.0 5.7
14:00 17.0 15.5 91 1020.2 13.6 WSW 16.8 0.0 5.7
14:02 17.1 15.6 91 1020.3 14.5 SW 16.8 0.0 5.7
14:03 17.1 15.5 90 1020.3 13.0 SW 16.8 0.0 5.7
14:04 17.1 15.5 90 1020.3 16.8 WSW 16.8 0.0 5.7
14:05 17.2 15.6 90 1020.2 14.5 SW 16.8 0.0 5.7
14:06 17.2 15.4 89 1020.3 13.6 SSW 19.7 0.0 5.7
14:07 17.2 15.4 89 1020.4 19.0 SW 19.7 0.0 5.7
14:08 17.2 15.4 89 1020.4 14.5 W 19.7 0.0 5.7
14:09 17.2 15.4 89 1020.4 15.9 W 19.7 0.0 5.7
14:10 17.2 15.4 89 1020.4 19.0 NW 19.7 0.0 5.7
14:11 17.1 15.1 88 1020.4 17.4 W 19.7 0.0 5.7
14:12 17.1 15.1 88 1020.4 16.8 SW 19.7 0.0 5.7
14:13 17.0 15.0 88 1020.4 17.4 SW 19.7 0.0 5.7
14:14 17.0 15.0 88 1020.6 15.9 W 19.7 0.0 5.7
14:15 16.9 15.1 89 1020.7 13.6 SW 19.7 0.0 5.7
14:16 16.9 15.1 89 1020.5 15.2 WSW 19.0 0.0 5.7
14:17 16.8 15.0 89 1020.5 12.1 WSW 19.0 0.0 5.7
14:18 16.8 15.0 89 1020.5 9.8 SW 19.0 0.0 5.7
14:19 16.7 14.9 89 1020.4 10.7 NW 19.0 0.0 5.7
14:20 16.7 14.9 89 1020.5 9.8 S 19.0 0.0 5.7
14:21 16.7 14.9 89 1020.4 9.8 SW 18.3 0.0 5.7
14:23 16.6 14.8 89 1020.7 6.9 W 17.4 0.0 5.7
14:24 16.7 14.9 89 1020.5 9.2 N 15.9 0.0 5.7
14:25 16.7 15.1 90 1020.3 11.4 W 15.2 0.0 5.7
14:26 16.9 15.1 89 1020.4 12.1 W 12.1 0.0 5.7
14:27 17.1 15.5 90 1020.5 13.6 SW 15.9 0.0 5.7
14:28 17.2 15.4 89 1020.6 12.1 NW 15.9 0.0 5.7
14:29 17.3 15.7 90 1020.4 7.6 SW 15.9 0.0 5.7
14:30 17.4 15.8 90 1020.7 9.8 SW 15.9 0.0 5.7
14:31 17.5 15.9 90 1020.5 14.5 SW 15.9 0.0 5.7
14:32 17.6 16.0 90 1020.5 11.4 SW 15.9 0.0 5.7
14:33 17.6 16.0 90 1020.5 14.5 NW 15.9 0.0 5.7
14:34 17.6 16.0 90 1020.5 9.2 SW 15.9 0.0 5.7
14:35 17.6 16.0 90 1020.6 13.6 SW 15.9 0.0 5.7
14:36 17.6 15.8 89 1020.4 15.2 S 15.9 0.0 5.7
14:37 17.5 15.7 89 1020.5 12.1 SW 15.2 0.0 5.7
14:38 17.5 15.7 89 1020.6 9.8 W 15.2 0.0 5.7
14:39 17.5 15.7 89 1020.6 11.4 W 15.2 0.0 5.7
14:40 17.4 15.6 89 1020.5 9.2 S 15.2 0.0 5.7
14:41 17.4 15.6 89 1020.5 9.2 S 15.2 0.0 5.7
14:42 17.4 15.6 89 1020.7 9.8 NW 15.2 0.0 5.7
14:43 17.4 15.6 89 1020.6 11.4 SW 15.2 0.0 5.7
14:44 17.5 15.7 89 1020.6 12.1 W 15.2 0.0 5.7
14:45 17.5 15.7 89 1020.7 9.8 SW 15.2 0.0 5.7
14:46 17.5 15.7 89 1020.5 13.0 SSW 15.2 0.0 5.7
14:48 17.4 15.6 89 1020.7 9.8 SW 13.6 0.0 5.7
14:49 17.5 15.7 89 1020.6 12.1 SW 13.6 0.0 5.7
14:50 17.5 15.7 89 1020.5 12.1 SW 13.6 0.0 5.7
14:51 17.5 15.7 89 1020.8 11.4 NE 13.6 0.0 5.7
14:52 17.5 15.7 89 1020.6 12.1 SW 13.6 0.0 5.7
14:53 17.5 15.7 89 1020.6 9.8 SW 13.6 0.0 5.7
14:55 17.4 15.6 89 1020.3 8.3 SW 13.6 0.0 5.7
14:56 17.4 15.6 89 1020.5 12.1 WSW 13.6 0.0 5.7
14:57 17.4 15.6 89 1020.6 10.7 SW 12.1 0.0 5.7
14:58 17.4 15.6 89 1020.6 14.5 NW 14.5 0.0 5.7
14:59 17.5 15.7 89 1020.8 9.8 WNW 14.5 0.0 5.7
15:00 17.5 15.7 89 1020.6 9.8 WNW 14.5 0.0 5.7
15:01 17.5 15.7 89 1020.5 9.8 WNW 14.5 0.0 5.7
15:02 17.5 15.7 89 1020.6 13.0 WSW 14.5 0.0 5.7
15:03 17.4 15.4 88 1020.6 18.3 SW 18.3 0.0 5.7
15:04 17.4 15.4 88 1020.6 13.0 SW 18.3 0.0 5.7
15:05 17.4 15.4 88 1020.6 10.7 W 18.3 0.0 5.7
15:06 17.4 15.4 88 1020.6 11.4 W 18.3 0.0 5.7
15:07 17.3 15.5 89 1020.6 15.9 W 18.3 0.0 5.7
15:08 17.3 15.5 89 1020.6 15.2 SW 18.3 0.0 5.7
15:09 17.3 15.5 89 1020.7 11.4 NW 18.3 0.0 5.7
15:10 17.3 15.5 89 1020.5 9.2 NW 18.3 0.0 5.7
15:11 17.3 15.5 89 1020.7 10.7 NW 18.3 0.0 5.7
15:12 17.3 15.5 89 1020.6 13.0 N 18.3 0.0 5.7
15:13 17.3 15.5 89 1020.7 11.4 WSW 18.3 0.0 5.7
15:14 17.3 15.5 89 1020.5 17.4 WSW 17.4 0.0 5.7
15:15 17.3 15.5 89 1020.7 15.2 NW 17.4 0.0 5.7
15:16 17.3 15.5 89 1020.7 15.2 NW 17.4 0.0 5.7
15:17 17.4 15.6 89 1020.7 10.7 W 17.4 0.0 5.7
15:18 17.4 15.4 88 1020.7 10.7 SW 17.4 0.0 5.7
15:19 17.4 15.4 88 1020.6 14.5 NW 17.4 0.0 5.7
15:20 17.4 15.4 88 1020.6 14.5 NW 17.4 0.0 5.7
15:21 17.5 15.5 88 1020.7 13.0 SW 17.4 0.0 5.7
15:22 17.5 15.3 87 1020.9 15.9 SW 17.4 0.0 5.7
15:23 17.6 15.4 87 1020.6 15.9 WNW 17.4 0.0 5.7
15:24 17.6 15.4 87 1020.7 12.1 SW 17.4 0.0 5.7
15:25 17.7 15.5 87 1020.8 13.0 WSW 15.9 0.0 5.7
15:26 17.7 15.5 87 1020.7 12.1 WSW 15.9 0.0 5.7
15:27 17.7 15.5 87 1020.8 16.8 SW 16.8 0.0 5.7
15:28 17.7 15.3 86 1020.7 13.0 SW 16.8 0.0 5.7
15:29 17.7 15.5 87 1020.9 9.8 N 16.8 0.0 5.7
15:31 17.8 15.6 87 1020.8 9.8 SW 16.8 0.0 5.7
15:32 17.8 15.8 88 1020.8 14.5 SW 16.8 0.0 5.7
15:33 17.8 15.8 88 1020.9 11.4 SW 16.8 0.0 5.7
15:34 17.8 15.6 87 1020.8 9.8 SW 16.8 0.0 5.7
15:35 17.8 15.6 87 1020.8 10.7 WNW 16.8 0.0 5.7
15:36 17.8 15.6 87 1020.9 10.7 NW 16.8 0.0 5.7
15:37 17.9 15.7 87 1020.8 7.6 W 14.5 0.0 5.7
15:38 17.9 15.7 87 1020.7 10.7 SW 14.5 0.0 5.7
15:39 17.9 15.7 87 1020.8 8.3 W 14.5 0.0 5.7
15:40 18.0 15.8 87 1020.8 9.8 S 14.5 0.0 5.7
15:41 18.0 15.8 87 1020.9 8.3 NW 14.5 0.0 5.7
15:42 18.0 15.8 87 1020.8 6.9 NW 13.0 0.0 5.7
15:43 18.1 15.7 86 1020.9 9.2 NW 13.0 0.0 5.7
15:44 18.2 15.6 85 1020.9 9.8 SE 13.0 0.0 5.7
15:45 18.3 15.7 85 1020.9 12.1 SW 12.1 0.0 5.7
15:46 18.4 15.8 85 1020.8 12.1 W 12.1 0.0 5.7
15:47 18.5 15.8 84 1020.8 10.7 SW 12.1 0.0 5.7
15:48 18.6 15.9 84 1020.9 14.5 SW 14.5 0.0 5.7
15:49 18.6 15.9 84 1020.8 12.1 WSW 14.5 0.0 5.7
15:50 18.7 16.0 84 1020.8 9.2 SW 14.5 0.0 5.7
15:51 18.6 15.9 84 1020.7 11.4 NW 14.5 0.0 5.7
15:52 18.5 15.8 84 1020.9 12.1 SW 14.5 0.0 5.7
15:53 18.5 15.2 81 1020.9 14.5 W 14.5 0.0 5.7
15:55 18.4 15.1 81 1021.0 13.0 NW 14.5 0.0 5.7
15:56 18.3 14.8 80 1021.0 12.1 NW 14.5 0.0 5.7
15:57 18.3 15.0 81 1020.8 14.5 SW 14.5 0.0 5.7
15:58 18.2 14.9 81 1020.8 17.4 SW 17.4 0.0 5.7
15:59 18.1 14.4 79 1020.8 15.2 WSW 17.4 0.0 5.7
16:00 18.1 14.4 79 1020.8 15.2 WSW 17.4 0.0 5.7
16:01 18.1 14.4 79 1020.8 15.2 WSW 17.4 0.0 5.7
16:02 18.1 14.4 79 1020.8 12.1 SW 17.4 0.0 5.7
16:03 18.1 14.6 80 1020.8 12.1 NW 17.4 0.0 5.7
16:04 18.2 14.7 80 1020.8 15.2 NW 17.4 0.0 5.7
16:05 18.2 14.5 79 1020.7 16.8 SW 17.4 0.0 5.7
16:06 18.2 14.7 80 1020.8 13.0 NW 17.4 0.0 5.7
16:07 18.2 14.7 80 1020.8 15.2 SW 17.4 0.0 5.7
16:08 18.2 14.7 80 1020.7 13.6 NW 17.4 0.0 5.7
16:09 18.1 14.6 80 1020.8 15.2 W 17.4 0.0 5.7
16:10 18.1 14.8 81 1020.9 12.1 SW 16.8 0.0 5.7
16:11 18.1 14.8 81 1020.9 9.8 W 16.8 0.0 5.7
16:12 18.1 14.6 80 1020.8 12.1 WNW 16.8 0.0 5.7
16:13 18.0 14.5 80 1020.7 11.4 SW 16.8 0.0 5.7
16:15 18.0 14.7 81 1020.9 13.0 SW 16.8 0.0 5.7
16:16 17.9 14.4 80 1020.9 15.9 WSW 15.9 0.0 5.7
16:17 17.9 14.4 80 1020.8 14.5 W 15.9 0.0 5.7
16:18 17.9 14.4 80 1020.7 14.5 SW 15.9 0.0 5.7
16:19 17.9 14.4 80 1020.8 12.1 S 15.9 0.0 5.7
16:20 17.9 14.4 80 1020.8 11.4 SW 15.9 0.0 5.7
16:21 17.9 14.6 81 1020.9 6.9 SW 15.9 0.0 5.7
16:22 17.9 14.6 81 1020.8 9.2 W 15.9 0.0 5.7
16:23 17.8 14.5 81 1020.8 9.2 WNW 15.9 0.0 5.7
16:24 17.9 14.6 81 1020.8 8.3 W 15.9 0.0 5.7
16:25 17.8 14.5 81 1020.7 5.4 W 15.9 0.0 5.7
16:26 17.9 14.6 81 1020.8 9.2 W 15.9 0.0 5.7
16:27 17.9 14.6 81 1020.8 13.0 SW 15.9 0.0 5.7
16:28 17.9 14.6 81 1020.8 13.0 SW 15.9 0.0 5.7
16:29 18.0 14.7 81 1020.8 11.4 S 15.9 0.0 5.7
16:30 18.1 14.8 81 1020.9 9.2 SW 13.0 0.0 5.7
16:31 18.2 14.7 80 1020.8 7.6 W 13.0 0.0 5.7
16:32 18.3 15.0 81 1020.9 8.3 SW 13.0 0.0 5.7
16:33 18.4 14.9 80 1020.8 13.6 SW 13.6 0.0 5.7
16:34 18.5 15.0 80 1021.0 9.2 SW 13.6 0.0 5.7
16:35 18.5 15.0 80 1021.0 11.4 W 13.6 0.0 5.7
16:36 18.5 15.0 80 1021.1 13.6 W 13.6 0.0 5.7
16:37 18.5 15.2 81 1021.0 11.4 W 13.6 0.0 5.7
16:38 18.5 15.0 80 1021.0 17.4 NW 17.4 0.0 5.7
16:39 18.4 14.9 80 1021.0 13.6 SW 17.4 0.0 5.7
16:41 18.4 15.1 81 1021.1 15.9 S 17.4 0.0 5.7
16:42 18.3 15.0 81 1021.0 12.1 SW 17.4 0.0 5.7
16:43 18.2 14.9 81 1021.1 13.6 SW 17.4 0.0 5.7
16:44 18.1 14.8 81 1020.9 9.2 W 17.4 0.0 5.7
16:45 18.1 14.8 81 1021.1 11.4 W 17.4 0.0 5.7
16:46 18.1 14.8 81 1021.1 13.0 N 17.4 0.0 5.7
16:47 18.0 14.9 82 1021.0 10.7 SW 17.4 0.0 5.7
16:48 18.0 14.9 82 1021.0 9.2 S 17.4 0.0 5.7
16:49 18.0 14.9 82 1021.1 10.7 SW 17.4 0.0 5.7
16:50 17.9 14.8 82 1021.0 10.7 W 17.4 0.0 5.7
16:51 17.9 14.8 82 1021.0 12.1 W 17.4 0.0 5.7
16:52 17.9 14.8 82 1021.2 9.8 SW 13.6 0.0 5.7
16:53 17.9 14.8 82 1021.1 9.2 SW 13.0 0.0 5.7
16:54 17.9 14.8 82 1021.1 11.4 WSW 13.0 0.0 5.7
16:55 17.8 14.7 82 1021.0 8.3 SW 13.0 0.0 5.7
16:56 17.8 14.7 82 1021.1 6.9 SW 13.0 0.0 5.7
16:57 17.8 14.7 82 1021.1 6.9 SW 13.0 0.0 5.7
16:58 17.9 14.4 80 1021.2 10.7 W 13.0 0.0 5.7
16:59 17.9 14.4 80 1021.1 10.7 W 13.0 0.0 5.7
17:00 17.9 14.4 80 1021.1 10.7 NW 13.0 0.0 5.7
17:01 17.9 14.4 80 1020.9 10.7 NW 13.0 0.0 5.7
17:02 17.9 14.4 80 1021.1 11.4 NW 12.1 0.0 5.7
17:03 17.9 14.4 80 1021.2 9.2 W 12.1 0.0 5.7
17:04 17.9 14.4 80 1021.2 9.2 S 12.1 0.0 5.7
17:05 17.9 14.4 80 1021.2 13.6 NNW 13.6 0.0 5.7
17:07 17.8 14.3 80 1021.3 10.7 SW 13.6 0.0 5.7
17:08 17.8 14.3 80 1021.2 9.8 W 13.6 0.0 5.7
17:09 17.8 14.3 80 1021.1 7.6 W 13.6 0.0 5.7
17:10 17.7 14.2 80 1021.3 12.1 SW 13.6 0.0 5.7
17:11 17.7 14.2 80 1021.2 12.1 NW 13.6 0.0 5.7
17:12 17.7 14.2 80 1021.2 9.8 WSW 13.6 0.0 5.7
17:13 17.7 14.2 80 1021.2 13.0 SW 13.6 0.0 5.7
17:15 17.7 14.2 80 1021.1 10.7 WSW 13.0 0.0 5.7
17:16 17.7 14.2 80 1021.2 10.7 S 13.0 0.0 5.7
17:17 17.7 14.2 80 1021.2 9.8 W 13.0 0.0 5.7
17:18 17.7 14.2 80 1021.3 9.8 S 13.0 0.0 5.7
17:19 17.7 14.2 80 1021.3 13.0 N 13.0 0.0 5.7
17:20 17.7 14.2 80 1021.2 8.3 W 13.0 0.0 5.7
17:21 17.7 14.2 80 1021.3 10.7 N 13.0 0.0 5.7
17:22 17.7 14.2 80 1021.1 11.4 W 13.0 0.0 5.7
17:23 17.7 14.2 80 1021.2 9.2 W 13.0 0.0 5.7
17:24 17.7 14.2 80 1021.3 14.5 SW 14.5 0.0 5.7
17:25 17.7 14.2 80 1021.4 11.4 S 14.5 0.0 5.7
17:26 17.7 14.2 80 1021.2 9.2 S 14.5 0.0 5.7
17:27 17.7 14.2 80 1021.3 12.1 W 14.5 0.0 5.7
17:28 17.7 14.2 80 1021.3 8.3 SW 14.5 0.0 5.7
17:29 17.7 14.2 80 1021.2 8.3 SW 14.5 0.0 5.7
17:30 17.7 14.2 80 1021.4 11.4 SW 14.5 0.0 5.7
17:31 17.7 14.2 80 1021.3 9.2 SW 14.5 0.0 5.7
17:32 17.7 14.2 80 1021.3 9.2 SW 14.5 0.0 5.7
17:33 17.7 14.2 80 1021.3 8.3 SW 14.5 0.0 5.7
17:34 17.7 14.2 80 1021.2 14.5 SW 14.5 0.0 5.7
17:35 17.7 14.2 80 1021.3 12.1 SW 14.5 0.0 5.7
17:36 17.7 14.2 80 1021.4 14.5 SW 14.5 0.0 5.7
17:37 17.7 14.0 79 1021.5 11.4 NW 14.5 0.0 5.7
17:38 17.7 14.0 79 1021.3 10.7 SW 14.5 0.0 5.7
17:39 17.7 14.0 79 1021.4 10.7 SW 14.5 0.0 5.7
17:40 17.7 14.0 79 1021.5 11.4 WSW 14.5 0.0 5.7
17:41 17.7 14.0 79 1021.4 10.7 W 14.5 0.0 5.7
17:42 17.6 13.9 79 1021.4 7.6 W 14.5 0.0 5.7
17:43 17.6 13.9 79 1021.5 6.9 WNW 14.5 0.0 5.7
17:44 17.6 13.9 79 1021.5 8.3 SW 14.5 0.0 5.7
17:45 17.7 14.0 79 1021.4 9.2 SW 14.5 0.0 5.7
17:46 17.7 14.0 79 1021.4 7.6 S 11.4 0.0 5.7
17:47 17.7 14.0 79 1021.5 11.4 W 11.4 0.0 5.7
17:49 17.7 14.0 79 1021.3 15.9 SW 15.9 0.0 5.7
17:50 17.6 13.9 79 1021.3 8.3 W 15.9 0.0 5.7
17:51 17.6 13.9 79 1021.3 12.1 W 15.9 0.0 5.7
17:52 17.6 13.9 79 1021.4 9.2 W 15.9 0.0 5.7
17:53 17.6 13.9 79 1021.4 12.1 WSW 15.9 0.0 5.7
17:54 17.6 13.7 78 1021.4 12.1 S 15.9 0.0 5.7
17:55 17.5 13.6 78 1021.4 12.1 SW 15.9 0.0 5.7
17:56 17.5 13.6 78 1021.3 11.4 S 15.9 0.0 5.7
17:57 17.5 13.6 78 1021.3 12.1 SW 15.9 0.0 5.7
17:58 17.5 13.6 78 1021.4 11.4 SW 15.9 0.0 5.7
17:59 17.5 13.6 78 1021.3 10.7 N 14.5 0.0 5.7
18:00 17.5 13.6 78 1021.4 10.7 N 14.5 0.0 5.7
18:01 17.5 13.6 78 1021.3 10.7 N 14.5 0.0 5.7
18:02 17.4 13.5 78 1021.4 6.9 SW 14.5 0.0 5.7
18:03 17.4 13.5 78 1021.5 7.6 W 13.0 0.0 5.7
18:04 17.4 13.5 78 1021.3 9.2 WSW 13.0 0.0 5.7
18:05 17.4 13.7 79 1021.3 13.6 SW 13.6 0.0 5.7
18:06 17.4 13.7 79 1021.5 13.6 SW 13.6 0.0 5.7
18:07 17.4 13.7 79 1021.2 10.7 W 13.6 0.0 5.7
18:08 17.4 13.7 79 1021.4 7.6 SW 13.6 0.0 5.7
18:09 17.4 13.7 79 1021.4 8.3 NW 13.6 0.0 5.7
18:10 17.4 13.7 79 1021.4 9.8 W 13.6 0.0 5.7
18:11 17.4 13.7 79 1021.4 13.0 W 13.6 0.0 5.7
18:12 17.4 13.7 79 1021.4 13.6 W 13.6 0.0 5.7
18:13 17.4 13.7 79 1021.4 9.2 SW 13.6 0.0 5.7
18:14 17.4 13.7 79 1021.4 9.2 W 13.6 0.0 5.7
18:16 17.3 13.6 79 1021.4 13.0 SW 13.6 0.0 5.7
18:17 17.3 13.6 79 1021.3 10.7 W 13.6 0.0 5.7
18:18 17.4 13.7 79 1021.3 9.8 W 13.6 0.0 5.7
18:19 17.4 13.7 79 1021.4 9.2 WSW 13.6 0.0 5.7
18:20 17.3 13.6 79 1021.3 9.2 W 13.6 0.0 5.7
18:21 17.4 13.7 79 1021.5 9.2 W 13.6 0.0 5.7
18:22 17.4 13.7 79 1021.5 10.7 S 13.0 0.0 5.7
18:23 17.3 13.6 79 1021.5 5.4 W 13.0 0.0 5.7
18:24 17.4 13.7 79 1021.4 8.3 NW 13.0 0.0 5.7
18:25 17.4 13.7 79 1021.4 9.2 NW 13.0 0.0 5.7
18:26 17.4 13.7 79 1021.4 9.2 W 10.7 0.0 5.7
18:27 17.4 13.7 79 1021.4 13.0 W 13.0 0.0 5.7
18:28 17.4 13.7 79 1021.4 11.4 SW 13.0 0.0 5.7
18:29 17.3 13.6 79 1021.5 9.2 SW 13.0 0.0 5.7
18:30 17.3 13.6 79 1021.5 9.2 SW 13.0 0.0 5.7
18:31 17.3 13.6 79 1021.4 10.7 WSW 13.0 0.0 5.7
18:32 17.3 13.6 79 1021.5 8.3 W 13.0 0.0 5.7
18:33 17.3 13.6 79 1021.5 6.0 WSW 13.0 0.0 5.7
18:34 17.3 13.6 79 1021.5 7.6 SW 13.0 0.0 5.7
18:35 17.3 13.6 79 1021.6 6.9 SW 13.0 0.0 5.7
18:36 17.3 13.6 79 1021.5 7.6 SW 13.0 0.0 5.7
18:37 17.4 13.7 79 1021.6 6.9 SE 13.0 0.0 5.7
18:38 17.4 13.7 79 1021.7 6.9 SW 10.7 0.0 5.7
18:40 17.4 13.9 80 1021.6 5.4 W 10.7 0.0 5.7
18:41 17.5 14.0 80 1021.5 11.4 W 11.4 0.0 5.7
18:42 17.5 14.0 80 1021.7 9.2 WSW 11.4 0.0 5.7
18:43 17.5 14.0 80 1021.6 5.4 WSW 11.4 0.0 5.7
18:44 17.6 14.1 80 1021.6 8.3 W 11.4 0.0 5.7
18:45 17.7 14.2 80 1021.5 9.2 SW 11.4 0.0 5.7
18:46 17.7 14.2 80 1021.6 7.6 SW 11.4 0.0 5.7
18:47 17.8 14.3 80 1021.6 5.4 W 11.4 0.0 5.7
18:48 17.8 14.3 80 1021.6 9.2 SW 11.4 0.0 5.7
18:49 17.9 14.4 80 1021.7 9.2 SW 11.4 0.0 5.7
18:50 17.9 14.4 80 1021.6 10.7 W 11.4 0.0 5.7
18:51 17.9 14.2 79 1021.6 9.2 W 11.4 0.0 5.7
18:52 17.9 14.2 79 1021.5 6.9 SW 10.7 0.0 5.7
18:53 17.9 14.2 79 1021.7 6.0 SW 10.7 0.0 5.7
18:54 17.9 14.2 79 1021.6 6.9 SE 10.7 0.0 5.7
18:55 17.9 14.2 79 1021.6 5.4 W 10.7 0.0 5.7
18:56 17.9 14.2 79 1021.7 9.2 SW 10.7 0.0 5.7
18:57 17.9 14.2 79 1021.5 4.5 S 10.7 0.0 5.7
18:58 17.9 14.2 79 1021.7 6.9 SW 10.7 0.0 5.7
18:59 17.9 14.2 79 1021.6 5.4 NW 10.7 0.0 5.7
19:00 17.9 14.2 79 1021.7 8.3 SW 10.7 0.0 5.7
19:01 17.9 14.2 79 1021.7 8.3 SW 9.2 0.0 5.7
19:02 17.9 14.2 79 1021.8 10.7 SW 10.7 0.0 5.7
19:03 17.8 13.9 78 1021.7 14.5 SW 14.5 0.0 5.7
19:04 17.8 13.9 78 1021.8 12.1 SW 14.5 0.0 5.7
19:05 17.8 13.9 78 1021.7 9.2 SW 14.5 0.0 5.7
19:06 17.7 13.8 78 1021.8 6.9 S 14.5 0.0 5.7
19:07 17.7 13.8 78 1021.6 11.4 NW 14.5 0.0 5.7
19:08 17.6 13.5 77 1021.8 9.2 W 14.5 0.0 5.7
19:09 17.6 13.5 77 1021.7 6.9 SW 14.5 0.0 5.7
19:10 17.5 13.4 77 1021.6 10.7 S 14.5 0.0 5.7
19:11 17.5 13.4 77 1021.6 13.6 SW 14.5 0.0 5.7
19:12 17.5 13.4 77 1021.8 10.7 SW 14.5 0.0 5.7
19:13 17.5 13.4 77 1021.8 9.2 SW 13.6 0.0 5.7
19:14 17.4 13.3 77 1021.7 9.2 SW 13.6 0.0 5.7
19:15 17.4 13.3 77 1021.8 8.3 W 13.6 0.0 5.7
19:16 17.3 13.2 77 1021.8 7.6 W 13.6 0.0 5.7
19:17 17.3 13.2 77 1021.8 9.2 W 13.6 0.0 5.7
19:18 17.3 13.2 77 1021.7 8.3 NW 13.6 0.0 5.7
19:19 17.2 13.1 77 1021.7 5.4 SW 13.6 0.0 5.7
19:20 17.2 13.1 77 1021.8 8.3 NW 13.6 0.0 5.7
19:22 17.2 13.1 77 1021.9 6.9 SW 10.7 0.0 5.7
19:23 17.2 13.1 77 1021.7 12.1 SW 12.1 0.0 5.7
19:24 17.1 13.0 77 1021.7 6.0 W 12.1 0.0 5.7
19:25 17.1 13.0 77 1021.7 6.9 SW 12.1 0.0 5.7
19:26 17.1 13.0 77 1022.0 7.6 NW 12.1 0.0 5.7
19:27 17.1 13.0 77 1021.8 11.4 SW 12.1 0.0 5.7
19:28 17.1 13.0 77 1021.8 8.3 SW 12.1 0.0 5.7
19:29 17.1 13.0 77 1021.8 9.2 SW 12.1 0.0 5.7
19:30 17.1 13.0 77 1021.6 9.2 W 12.1 0.0 5.7
19:31 17.0 12.9 77 1021.8 8.3 W 12.1 0.0 5.7
19:32 17.0 12.9 77 1021.8 7.6 SW 12.1 0.0 5.7
19:33 17.0 12.9 77 1021.8 9.2 W 11.4 0.0 5.7
19:34 17.0 12.9 77 1021.7 3.8 SW 11.4 0.0 5.7
19:35 17.0 12.9 77 1021.8 6.0 WSW 11.4 0.0 5.7
19:36 17.0 12.9 77 1021.8 6.0 WSW 11.4 0.0 5.7
19:37 17.0 12.9 77 1021.7 7.6 WSW 11.4 0.0 5.7
19:38 17.0 12.9 77 1021.8 6.9 W 9.2 0.0 5.7
19:39 17.0 12.9 77 1021.8 4.5 SW 9.2 0.0 5.7
19:40 17.0 12.9 77 1021.8 7.6 SE 9.2 0.0 5.7
19:41 17.0 13.1 78 1021.9 6.9 NW 9.2 0.0 5.7
19:42 16.9 13.0 78 1021.8 6.9 NW 9.2 0.0 5.7
19:43 16.9 13.0 78 1021.8 5.4 SW 9.2 0.0 5.7
19:44 16.9 13.0 78 1021.9 6.0 W 7.6 0.0 5.7
19:45 16.9 13.0 78 1021.8 4.5 W 7.6 0.0 5.7
19:46 16.9 13.0 78 1022.0 4.5 SW 7.6 0.0 5.7
19:47 16.8 13.0 78 1021.9 6.0 W 7.6 0.0 5.7
19:48 16.8 13.0 78 1021.9 3.8 NW 7.6 0.0 5.7
19:49 16.8 13.0 78 1022.0 4.5 SW 7.6 0.0 5.7
19:50 16.8 13.0 78 1022.0 4.5 SW 6.9 0.0 5.7
19:51 16.8 13.1 79 1022.0 3.8 W 6.9 0.0 5.7
19:52 16.7 13.0 79 1021.9 5.4 SW 6.0 0.0 5.7
19:53 16.7 13.0 79 1021.9 6.9 W 6.9 0.0 5.7
19:54 16.7 13.0 79 1021.9 6.0 WNW 6.9 0.0 5.7
19:55 16.7 13.0 79 1021.9 7.6 SW 7.6 0.0 5.7
19:56 16.7 13.0 79 1022.0 6.9 SE 7.6 0.0 5.7
19:57 16.7 13.0 79 1022.0 7.6 SW 7.6 0.0 5.7
19:58 16.7 13.0 79 1021.9 6.0 NW 7.6 0.0 5.7
19:59 16.6 13.0 79 1021.9 5.4 NW 7.6 0.0 5.7
20:00 16.6 13.0 79 1022.0 5.4 NW 7.6 0.0 5.7
20:01 16.6 13.0 79 1022.0 5.4 NW 7.6 0.0 5.7
20:02 16.6 13.0 79 1021.9 6.9 N 7.6 0.0 5.7
20:03 16.6 13.0 79 1021.9 6.0 SW 7.6 0.0 5.7
20:04 16.6 13.0 79 1022.0 5.4 W 7.6 0.0 5.7
20:05 16.6 13.0 79 1022.1 3.8 NW 7.6 0.0 5.7
20:06 16.6 13.0 79 1022.0 3.8 SW 7.6 0.0 5.7
20:07 16.6 13.0 79 1021.9 5.4 SW 7.6 0.0 5.7
20:08 16.6 13.0 79 1022.0 3.1 W 6.9 0.0 5.7
20:09 16.6 13.0 79 1022.1 3.8 NW 6.9 0.0 5.7
20:10 16.5 12.9 79 1021.9 3.8 W 6.9 0.0 5.7
20:11 16.5 12.9 79 1022.2 3.1 NW 6.9 0.0 5.7
20:12 16.5 12.9 79 1022.0 2.2 NW 6.9 0.0 5.7
20:13 16.5 12.9 79 1022.2 2.2 S 6.0 0.0 5.7
20:14 16.5 12.9 79 1022.2 5.4 NW 5.4 0.0 5.7
20:15 16.5 12.9 79 1022.3 3.8 W 5.4 0.0 5.7
20:16 16.4 12.8 79 1022.1 7.6 W 7.6 0.0 5.7
20:18 16.4 12.9 80 1022.2 4.5 W 7.6 0.0 5.7
20:19 16.4 12.9 80 1022.2 6.0 W 7.6 0.0 5.7
20:20 16.3 12.9 80 1022.2 3.8 NW 7.6 0.0 5.7
20:21 16.3 12.9 80 1021.9 4.5 NW 7.6 0.0 5.7
20:22 16.3 12.9 80 1022.2 3.8 W 7.6 0.0 5.7
20:23 16.3 12.9 80 1022.0 2.2 NW 7.6 0.0 5.7
20:24 16.3 12.9 80 1022.2 3.1 NW 7.6 0.0 5.7
20:25 16.2 12.8 80 1022.1 4.5 W 7.6 0.0 5.7
20:26 16.2 12.8 80 1022.1 3.1 WNW 6.0 0.0 5.7
20:27 16.2 12.8 80 1022.1 1.6 NW 6.0 0.0 5.7
20:28 16.2 12.8 80 1022.3 2.2 SW 6.0 0.0 5.7
20:29 16.2 12.8 80 1022.2 2.2 N 6.0 0.0 5.7
20:30 16.2 12.8 80 1022.0 3.8 WNW 4.5 0.0 5.7
20:31 16.2 12.8 80 1022.2 5.4 W 5.4 0.0 5.7
20:32 16.1 12.7 80 1022.1 5.4 NW 5.4 0.0 5.7
20:33 16.1 12.7 80 1022.1 2.2 W 5.4 0.0 5.7
20:34 16.1 12.7 80 1022.2 3.1 SW 5.4 0.0 5.7
20:35 16.1 12.7 80 1022.2 3.1 SW 5.4 0.0 5.7
20:36 16.1 12.7 80 1022.1 3.1 SW 5.4 0.0 5.7
20:37 16.1 12.7 80 1022.0 3.1 W 5.4 0.0 5.7
20:38 16.1 12.7 80 1022.1 3.1 NW 5.4 0.0 5.7
20:39 16.0 12.6 80 1022.2 2.2 NW 5.4 0.0 5.7
20:40 16.0 12.7 81 1022.1 2.2 SW 5.4 0.0 5.7
20:41 16.0 12.7 81 1022.1 3.1 WNW 5.4 0.0 5.7
20:42 16.0 12.7 81 1022.1 2.2 SW 5.4 0.0 5.7
20:43 16.0 12.7 81 1022.0 3.8 SW 3.8 0.0 5.7
20:44 16.0 12.7 81 1022.1 3.8 NW 3.8 0.0 5.7
20:45 16.0 12.7 81 1022.1 3.1 SW 3.8 0.0 5.7
20:46 15.9 12.7 81 1022.2 3.1 NW 3.8 0.0 5.7
20:47 15.9 12.7 81 1022.1 3.1 W 3.8 0.0 5.7
20:48 15.9 12.7 81 1022.1 3.1 SW 3.8 0.0 5.7
20:49 15.9 12.7 81 1022.1 2.2 W 3.8 0.0 5.7
20:50 15.9 12.7 81 1022.2 3.1 SW 3.8 0.0 5.7
20:51 15.8 12.6 81 1022.1 2.2 W 3.8 0.0 5.7
20:52 15.8 12.6 81 1022.2 3.1 WNW 3.8 0.0 5.7
20:53 15.8 12.6 81 1022.3 3.1 W 3.8 0.0 5.7
20:54 15.8 12.6 81 1022.3 3.1 WNW 3.8 0.0 5.7
20:55 15.8 12.6 81 1022.3 3.1 WSW 3.1 0.0 5.7
20:56 15.8 12.6 81 1022.1 2.2 W 3.1 0.0 5.7
20:57 15.7 12.5 81 1022.3 3.1 NW 3.1 0.0 5.7
20:58 15.7 12.5 81 1022.4 1.6 W 3.1 0.0 5.7
20:59 15.7 12.5 81 1022.4 2.2 SW 3.1 0.0 5.7
21:00 15.7 12.5 81 1022.3 2.2 SW 3.1 0.0 5.7
21:01 15.7 12.5 81 1022.3 2.2 SW 3.1 0.0 5.7
21:02 15.6 12.4 81 1022.3 1.6 NW 3.1 0.0 5.7
21:03 15.6 12.5 82 1022.3 1.6 W 3.1 0.0 5.7
21:04 15.6 12.5 82 1022.3 1.6 SW 3.1 0.0 5.7
21:05 15.6 12.5 82 1022.4 0.7 SW 3.1 0.0 5.7
21:06 15.6 12.5 82 1022.3 0.7 NW 3.1 0.0 5.7
21:07 15.6 12.5 82 1022.4 1.6 NE 3.1 0.0 5.7
21:08 15.6 12.5 82 1022.4 1.6 NW 2.2 0.0 5.7
21:09 15.5 12.4 82 1022.4 1.6 W 2.2 0.0 5.7
21:10 15.5 12.4 82 1022.3 1.6 NW 2.2 0.0 5.7
21:11 15.5 12.4 82 1022.5 1.6 W 2.2 0.0 5.7
21:12 15.5 12.4 82 1022.4 1.6 NW 1.6 0.0 5.7
21:13 15.5 12.4 82 1022.4 1.6 W 1.6 0.0 5.7
21:14 15.5 12.4 82 1022.4 1.6 W 1.6 0.0 5.7
21:15 15.5 12.4 82 1022.5 0.7 W 1.6 0.0 5.7
21:16 15.5 12.4 82 1022.5 0.7 W 1.6 0.0 5.7
21:17 15.5 12.4 82 1022.6 1.6 SW 1.6 0.0 5.7
21:18 15.5 12.4 82 1022.3 2.2 W 2.2 0.0 5.7
21:19 15.4 12.3 82 1022.5 1.6 W 2.2 0.0 5.7
21:20 15.4 12.3 82 1022.5 1.6 W 2.2 0.0 5.7
21:21 15.4 12.3 82 1022.5 1.6 NW 2.2 0.0 5.7
21:22 15.4 12.3 82 1022.5 1.6 W 2.2 0.0 5.7
21:23 15.4 12.3 82 1022.5 0.7 NW 2.2 0.0 5.7
21:24 15.4 12.3 82 1022.6 0.0 NW 2.2 0.0 5.7
21:26 15.4 12.3 82 1022.6 0.7 S 2.2 0.0 5.7
21:27 15.3 12.3 82 1022.6 0.0 S 2.2 0.0 5.7
21:28 15.3 12.3 82 1022.6 0.0 S 2.2 0.0 5.7
21:29 15.3 12.4 83 1022.6 0.0 S 2.2 0.0 5.7
21:30 15.3 12.4 83 1022.7 0.7 S 2.2 0.0 5.7
21:31 15.3 12.4 83 1022.5 0.0 S 1.6 0.0 5.7
21:32 15.3 12.4 83 1022.6 0.0 S 0.7 0.0 5.7
21:33 15.3 12.4 83 1022.7 0.0 S 0.7 0.0 5.7
21:34 15.3 12.4 83 1022.7 0.0 S 0.7 0.0 5.7
21:35 15.3 12.4 83 1022.7 0.0 S 0.7 0.0 5.7
21:36 15.3 12.4 83 1022.7 0.0 S 0.7 0.0 5.7
21:37 15.3 12.4 83 1022.6 0.0 S 0.7 0.0 5.7
21:38 15.3 12.4 83 1022.7 0.0 S 0.7 0.0 5.7
21:39 15.3 12.4 83 1022.7 0.0 S 0.7 0.0 5.7
21:40 15.2 12.3 83 1022.7 0.0 S 0.7 0.0 5.7
21:41 15.2 12.3 83 1022.8 0.0 S 0.0 0.0 5.7
21:42 15.2 12.3 83 1022.7 0.0 S 0.0 0.0 5.7
21:43 15.2 12.3 83 1022.8 0.0 S 0.0 0.0 5.7
21:44 15.2 12.3 83 1022.8 0.0 S 0.0 0.0 5.7
21:45 15.2 12.3 83 1022.9 0.0 S 0.0 0.0 5.7
21:46 15.2 12.3 83 1022.8 0.0 S 0.0 0.0 5.7
21:47 15.2 12.3 83 1022.9 0.0 S 0.0 0.0 5.7
21:48 15.1 12.2 83 1023.0 0.0 S 0.0 0.0 5.7
21:49 15.1 12.2 83 1022.8 0.0 S 0.0 0.0 5.7
21:50 15.1 12.2 83 1022.8 0.0 S 0.0 0.0 5.7
21:51 15.1 12.2 83 1022.8 0.0 S 0.0 0.0 5.7
21:52 15.1 12.2 83 1022.8 0.0 S 0.0 0.0 5.7
21:53 15.1 12.2 83 1022.8 0.0 S 0.0 0.0 5.7
21:54 15.1 12.2 83 1023.0 0.0 S 0.0 0.0 5.7
21:55 15.1 12.2 83 1022.9 0.0 S 0.0 0.0 5.7
21:56 15.0 12.1 83 1023.0 0.0 S 0.0 0.0 5.7
21:57 15.1 12.2 83 1023.0 0.0 S 0.0 0.0 5.7
21:58 15.0 12.1 83 1023.0 0.0 S 0.0 0.0 5.7
21:59 15.0 12.1 83 1022.9 0.0 S 0.0 0.0 5.7
22:00 15.0 12.1 83 1022.9 0.0 S 0.0 0.0 5.7
22:02 15.0 12.1 83 1023.1 0.0 S 0.0 0.0 5.7
22:03 15.0 12.1 83 1023.1 0.0 S 0.0 0.0 5.7
22:04 15.0 12.1 83 1023.0 0.0 S 0.0 0.0 5.7
22:05 15.0 12.1 83 1023.2 0.0 S 0.0 0.0 5.7
22:06 15.0 12.3 84 1023.1 0.0 NE 0.0 0.0 5.7
22:07 15.0 12.3 84 1023.0 0.0 NE 0.0 0.0 5.7
22:08 15.0 12.3 84 1022.9 0.0 NE 0.0 0.0 5.7
22:09 15.0 12.3 84 1023.1 0.0 NE 0.0 0.0 5.7
22:10 15.0 12.3 84 1023.0 0.0 NE 0.0 0.0 5.7
22:11 15.0 12.3 84 1023.0 0.0 NE 0.0 0.0 5.7
22:12 15.0 12.3 84 1023.0 0.0 NE 0.0 0.0 5.7
22:13 15.0 12.3 84 1022.9 0.7 NE 0.7 0.0 5.7
22:14 15.1 12.4 84 1023.0 0.0 NE 0.7 0.0 5.7
22:15 15.0 12.3 84 1023.0 0.0 NE 0.7 0.0 5.7
22:16 15.0 12.3 84 1023.0 0.0 NE 0.7 0.0 5.7
22:17 15.0 12.3 84 1022.9 0.0 NE 0.7 0.0 5.7
22:18 15.0 12.3 84 1022.9 0.0 NE 0.7 0.0 5.7
22:19 15.0 12.5 85 1022.9 0.0 NE 0.7 0.0 5.7
22:20 15.0 12.3 84 1023.0 0.0 NE 0.7 0.0 5.7
22:21 15.0 12.5 85 1023.0 0.0 NE 0.7 0.0 5.7
22:22 15.0 12.5 85 1023.0 0.7 N 0.7 0.0 5.7
22:23 15.0 12.5 85 1023.0 0.7 N 0.7 0.0 5.7
22:24 15.0 12.5 85 1023.1 0.7 E 0.7 0.0 5.7
22:25 14.9 12.4 85 1022.9 0.7 E 0.7 0.0 5.7
22:26 15.0 12.5 85 1023.0 0.0 E 0.7 0.0 5.7
22:27 15.1 12.6 85 1023.3 0.0 E 0.7 0.0 5.7
22:28 14.9 12.4 85 1023.1 0.0 E 0.7 0.0 5.7
22:29 14.9 12.4 85 1023.0 0.0 E 0.7 0.0 5.7
22:30 14.9 12.4 85 1023.2 0.7 E 0.7 0.0 5.7
22:31 14.9 12.4 85 1023.2 0.0 E 0.7 0.0 5.7
22:32 14.9 12.2 84 1023.0 0.0 E 0.7 0.0 5.7
22:33 14.9 12.2 84 1023.0 0.0 E 0.7 0.0 5.7
22:34 14.8 12.3 85 1023.1 0.0 E 0.7 0.0 5.7
22:35 14.8 12.1 84 1023.2 0.0 E 0.7 0.0 5.7
22:36 14.8 12.3 85 1023.2 0.0 N 0.7 0.0 5.7
22:37 14.7 12.0 84 1023.2 0.0 N 0.7 0.0 5.7
22:38 14.8 12.3 85 1023.2 0.0 N 0.7 0.0 5.7
22:39 14.7 12.2 85 1023.1 0.0 N 0.7 0.0 5.7
22:41 14.7 12.2 85 1023.1 0.0 N 0.0 0.0 5.7
22:42 14.7 12.2 85 1023.2 0.0 NE 0.0 0.0 5.7
22:43 14.7 12.2 85 1023.2 0.7 SE 0.7 0.0 5.7
22:44 14.7 12.2 85 1023.1 0.0 SE 0.7 0.0 5.7
22:45 14.7 12.2 85 1023.1 0.0 SE 0.7 0.0 5.7
22:46 14.7 12.2 85 1023.1 0.0 SE 0.7 0.0 5.7
22:47 14.7 12.2 85 1023.1 0.0 SE 0.7 0.0 5.7
22:48 14.7 12.2 85 1023.2 0.0 SE 0.7 0.0 5.7
22:49 14.7 12.2 85 1023.1 0.0 NW 0.7 0.0 5.7
22:50 14.7 12.2 85 1023.1 0.0 NW 0.7 0.0 5.7
22:51 14.7 12.2 85 1023.1 0.0 NW 0.7 0.0 5.7
22:52 14.7 12.2 85 1023.2 0.0 NE 0.7 0.0 5.7
22:53 14.7 12.2 85 1023.2 0.0 NE 0.7 0.0 5.7
22:54 14.7 12.2 85 1023.2 0.0 NE 0.7 0.0 5.7
22:55 14.7 12.2 85 1023.1 0.0 NE 0.7 0.0 5.7
22:56 14.8 12.3 85 1023.2 0.0 NE 0.7 0.0 5.7
22:57 14.8 12.3 85 1023.2 0.0 NE 0.7 0.0 5.7
22:58 14.8 12.3 85 1023.1 0.0 NE 0.7 0.0 5.7
22:59 14.8 12.3 85 1023.2 0.0 NE 0.7 0.0 5.7
23:00 14.8 12.3 85 1023.3 0.0 NE 0.7 0.0 5.7
23:01 14.8 12.3 85 1023.2 0.0 NE 0.7 0.0 5.7
23:02 14.8 12.3 85 1023.3 0.0 NE 0.0 0.0 5.7
23:03 14.8 12.3 85 1023.3 0.0 NE 0.0 0.0 5.7
23:04 14.8 12.3 85 1023.3 0.0 NE 0.0 0.0 5.7
23:05 14.8 12.3 85 1023.3 0.0 NE 0.0 0.0 5.7
23:06 14.8 12.5 86 1023.3 0.0 NW 0.0 0.0 5.7
23:07 14.8 12.5 86 1023.3 0.0 NW 0.0 0.0 5.7
23:08 14.9 12.6 86 1023.2 0.0 NW 0.0 0.0 5.7
23:09 14.9 12.6 86 1023.3 1.6 NW 1.6 0.0 5.7
23:10 14.9 12.6 86 1023.2 0.7 NW 1.6 0.0 5.7
23:11 14.9 12.6 86 1023.3 0.0 NW 1.6 0.0 5.7
23:12 14.9 12.6 86 1023.3 0.0 NW 1.6 0.0 5.7
23:13 14.9 12.6 86 1023.2 0.0 NW 1.6 0.0 5.7
23:14 15.0 12.7 86 1023.2 0.0 NW 1.6 0.0 5.7
23:15 15.0 12.9 87 1023.3 0.0 S 1.6 0.0 5.7
23:16 15.0 12.7 86 1023.2 0.0 S 1.6 0.0 5.7
23:17 15.0 12.9 87 1023.1 1.6 SE 1.6 0.0 5.7
23:18 15.0 12.9 87 1023.3 0.0 SE 1.6 0.0 5.7
23:19 15.0 12.9 87 1023.1 0.0 SE 1.6 0.0 5.7
23:20 15.0 12.9 87 1023.2 0.7 SE 1.6 0.0 5.7
23:21 15.0 12.9 87 1023.2 0.7 SE 1.6 0.0 5.7
23:22 15.0 12.9 87 1023.2 1.6 SE 1.6 0.0 5.7
23:23 15.0 12.9 87 1023.2 0.7 N 1.6 0.0 5.7
23:24 15.0 12.9 87 1023.1 0.0 N 1.6 0.0 5.7
23:25 15.0 12.9 87 1023.2 0.0 N 1.6 0.0 5.7
23:26 15.0 12.9 87 1023.3 0.0 N 1.6 0.0 5.7
23:27 15.0 12.9 87 1023.3 0.0 N 1.6 0.0 5.7
23:28 15.0 12.9 87 1023.3 0.0 N 1.6 0.0 5.7
23:29 15.0 12.9 87 1023.3 0.0 N 1.6 0.0 5.7
23:30 15.0 12.9 87 1023.2 0.0 N 1.6 0.0 5.7
23:31 15.0 12.9 87 1023.3 0.0 N 1.6 0.0 5.7
23:32 15.0 12.9 87 1023.2 0.0 N 1.6 0.0 5.7
23:33 15.0 12.9 87 1023.2 0.0 N 0.7 0.0 5.7
23:34 15.0 12.9 87 1023.2 0.0 N 0.0 0.0 5.7
23:35 15.1 13.0 87 1023.1 0.0 N 0.0 0.0 5.7
23:36 15.1 13.0 87 1023.3 0.0 N 0.0 0.0 5.7
23:37 15.1 13.0 87 1023.3 0.0 N 0.0 0.0 5.7
23:38 15.1 13.0 87 1023.2 0.0 N 0.0 0.0 5.7
23:39 15.1 13.0 87 1023.3 0.0 N 0.0 0.0 5.7
23:40 15.1 13.0 87 1023.3 0.0 N 0.0 0.0 5.7
23:41 15.1 13.0 87 1023.3 0.0 N 0.0 0.0 5.7
23:42 15.1 13.1 88 1023.3 0.0 N 0.0 0.0 5.7
23:43 15.1 13.1 88 1023.3 0.0 N 0.0 0.0 5.7
23:44 15.1 13.1 88 1023.2 0.0 N 0.0 0.0 5.7
23:45 15.1 13.1 88 1023.3 0.0 N 0.0 0.0 5.7
23:46 15.1 13.1 88 1023.4 0.0 N 0.0 0.0 5.7
23:47 15.1 13.1 88 1023.3 0.0 N 0.0 0.0 5.7
23:49 15.1 13.1 88 1023.3 0.0 N 0.0 0.0 5.7
23:50 15.1 13.1 88 1023.5 0.0 N 0.0 0.0 5.7
23:51 15.1 13.1 88 1023.4 0.0 N 0.0 0.0 5.7
23:52 15.1 13.1 88 1023.4 0.0 N 0.0 0.0 5.7
23:53 15.1 13.1 88 1023.5 0.0 N 0.0 0.0 5.7
23:54 15.1 13.1 88 1023.4 0.0 N 0.0 0.0 5.7
23:55 15.1 13.1 88 1023.4 0.0 N 0.0 0.0 5.7
23:56 15.1 13.1 88 1023.5 0.0 N 0.0 0.0 5.7
23:57 15.1 13.1 88 1023.4 0.0 N 0.0 0.0 5.7
23:58 15.1 13.1 88 1023.4 0.0 N 0.0 0.0 5.7
23:59 15.1 13.1 88 1023.5 0.0 N 0.0 0.0 5.7

UK - WEATHER STATION TOPSITES - UK World Weather Websites

This is a private weather station, never base important decisions or events on data from this weather station. Although every effort has been made to make the data as accurate as possible it does not meet MetOffice standards. It is proved as a guide of local weather conditions. We accept no liability for any loss which may arise from use of the data.

Copyright © Carnkie Weather 2009 - 2018.